GFSSW_500_rhum_000.txt.gz
RH
49 52 45 56 41 36 48 62 49 34 34 24 23 33 42 55 57 43 46 67 54 11 30 7 43 31 8 5 28 54 94 96 97 93 58 19 16 10 7 5 11 10 4 2 2
41 53 60 73 61 61 64 86 80 45 35 29 28 41 56 56 51 43 42 60 24 6 4 3 5 5 5 14 65 73 70 72 77 61 63 19 13 7 5 3 4 5 4 3 3
41 42 45 58 55 51 78 57 78 62 50 44 47 52 51 45 32 26 42 20 9 8 8 6 4 17 16 38 40 68 75 61 45 37 28 15 10 4 5 6 6 6 6 6 5
46 52 45 42 42 57 48 62 72 68 61 69 51 33 28 17 37 36 19 12 12 12 14 16 15 33 80 60 68 78 72 68 42 12 7 6 4 3 7 6 9 8 8 8 8
47 54 43 38 58 62 61 66 69 68 66 20 14 16 14 28 52 19 18 16 14 14 32 51 90 96 83 78 38 70 45 21 3 1 3 3 5 6 8 8 8 9 11 11 11
45 46 40 82 72 69 72 72 76 30 10 14 18 20 23 24 26 24 19 16 16 32 39 79 98 88 75 61 61 3 2 0 2 4 5 6 7 8 8 9 11 13 12 13 15
75 50 62 71 79 80 75 41 9 14 19 19 19 23 27 20 23 20 16 13 10 9 15 10 23 41 31 20 12 2 4 6 7 8 8 8 8 11 10 13 12 13 14 17 14
68 69 70 97 87 37 14 12 16 15 14 15 17 20 16 12 12 10 6 9 8 7 4 2 1 2 20 2 2 3 6 37 14 12 11 10 43 34 28 12 13 15 16 18 20
73 70 42 34 24 15 13 12 6 6 8 11 13 13 12 9 8 6 7 4 6 4 6 8 5 6 5 6 9 16 68 82 44 23 12 16 73 85 22 15 19 23 22 20 28
58 21 23 18 14 9 8 5 6 9 13 17 18 19 19 20 21 21 22 22 19 18 17 15 16 18 13 79 98 84 72 78 50 13 14 20 40 49 14 21 22 24 24 34 28
15 17 13 10 7 8 9 14 18 19 19 19 22 18 24 20 18 18 19 20 20 19 16 17 64 88 28 25 41 68 60 51 83 19 20 20 26 18 23 20 20 23 24 30 33
12 10 7 7 12 17 17 15 16 16 17 14 11 10 10 11 12 13 15 17 19 19 21 25 28 41 27 18 18 54 40 49 26 21 23 30 55 16 20 24 21 21 25 28 29
7 7 7 14 19 17 14 13 14 12 8 8 7 7 7 8 10 13 18 17 15 15 17 15 18 21 21 23 24 23 21 18 21 14 14 18 85 33 29 28 25 19 19 21 27
8 10 14 18 15 14 16 10 6 7 8 8 8 8 8 8 6 6 8 19 22 23 24 20 13 14 15 14 15 16 18 17 19 20 54 43 78 95 76 46 31 27 29 30 26
11 14 15 12 10 13 8 6 8 8 9 10 10 9 8 7 6 6 6 6 6 8 13 18 21 22 20 21 23 18 21 22 23 22 26 47 48 98 93 78 48 39 33 28 27
12 13 11 11 9 6 7 8 8 9 9 9 10 10 8 8 6 5 5 7 6 7 8 9 10 14 16 18 19 20 21 20 19 19 20 47 82 92 96 81 82 33 29 30 32
11 9 8 7 7 8 8 8 10 12 11 11 12 10 9 7 5 4 5 8 12 12 12 14 14 15 17 18 20 21 17 18 49 88 55 68 78 84 54 67 58 50 37 36 49
9 7 6 7 8 8 9 9 10 10 10 10 10 7 5 4 5 6 11 13 13 14 16 49 31 26 26 26 28 30 33 35 40 46 57 72 56 88 71 79 70 53 62 53 44
8 6 6 7 8 8 9 13 9 9 8 8 5 4 6 8 10 12 13 13 15 28 25 24 24 24 26 28 30 30 33 32 30 32 32 43 98 100 83 88 66 62 59 59 62
8 7 8 8 8 8 9 9 7 7 7 5 4 13 17 14 17 17 15 25 29 20 19 25 30 32 31 35 35 36 36 37 38 41 47 89 100 95 87 100 90 69 64 62 64
8 7 8 8 7 8 8 7 7 7 6 4 15 29 26 22 21 22 28 30 23 26 28 33 36 37 38 37 33 28 26 30 37 41 45 46 66 71 78 77 70 82 76 77 81
10 8 7 7 8 7 7 7 7 6 3 10 26 26 20 22 28 25 25 28 29 35 34 30 33 38 34 28 25 24 25 25 30 36 36 40 50 54 57 68 100 81 77 74 80
11 7 8 8 8 9 7 7 6 5 2 15 27 25 26 22 23 24 26 31 32 32 28 28 27 26 21 17 16 21 21 22 24 33 42 42 60 72 90 100 80 77 81 59 54
9 9 8 8 7 6 6 6 6 4 3 18 27 19 20 20 18 25 30 32 32 27 28 24 26 27 31 28 23 22 21 24 26 28 34 54 49 70 92 70 87 79 54 49 37
10 10 9 7 6 6 6 5 5 3 9 21 29 15 14 15 17 27 26 31 23 23 22 21 23 25 25 20 19 18 23 30 33 37 42 44 45 72 54 58 37 52 48 42 46
9 9 9 6 6 6 5 5 4 3 14 21 28 16 12 15 17 18 16 18 19 20 20 21 21 22 21 18 16 16 24 30 30 36 46 56 54 76 44 48 47 46 50 50 48
7 6 6 5 5 4 4 4 4 4 17 24 27 19 9 12 19 20 16 15 15 18 20 23 23 22 21 19 17 16 24 30 32 35 50 59 58 51 52 54 58 55 53 53 51

GFSSW_500_rhum_003.txt.gz
RH
31 34 51 48 33 29 30 35 33 30 30 34 32 27 38 36 52 60 56 51 64 69 37 14 9 15 43 60 97 93 94 96 96 97 94 88 54 14 6 8 10 6 13 4 2
29 32 45 41 40 56 59 67 80 78 42 35 32 28 39 41 52 60 51 42 69 47 23 6 10 13 38 83 98 95 79 92 93 85 97 78 31 13 9 8 4 7 10 4 3
30 36 41 43 52 65 63 65 66 84 60 44 38 35 41 54 56 45 36 34 69 27 11 21 12 15 98 95 75 74 73 100 99 84 64 46 23 11 6 4 6 6 6 3 4
40 40 41 41 40 49 51 46 75 69 66 59 50 51 61 54 40 27 23 38 37 16 11 16 16 24 61 74 73 73 73 71 69 65 41 15 11 5 5 9 9 8 7 8 6
54 55 46 50 46 46 59 53 62 71 79 81 81 54 43 31 27 23 24 25 19 18 29 45 51 66 55 64 74 68 37 41 63 38 5 5 4 5 8 8 7 7 9 10 10
62 49 47 57 47 59 59 62 70 82 89 55 21 16 20 23 39 41 22 20 24 34 59 52 74 82 93 89 60 29 8 2 0 0 4 6 8 10 10 12 12 10 10 12 15
61 50 51 57 73 75 78 73 84 84 21 14 16 14 17 31 22 19 17 14 14 31 30 23 94 98 86 74 10 0 1 5 7 9 12 12 15 9 12 12 14 17 14 13 13
78 64 52 74 83 88 82 64 24 16 20 22 23 24 27 19 19 20 18 13 10 9 9 25 73 55 23 11 0 0 3 6 22 22 17 13 9 21 40 12 12 14 16 16 12
63 68 64 73 97 78 25 13 20 20 20 21 22 22 23 20 17 15 13 10 9 11 9 1 9 1 2 41 60 67 65 69 72 31 15 21 11 29 24 11 15 18 18 17 14
64 83 79 82 53 19 16 19 21 18 20 23 21 22 15 15 13 11 9 7 5 6 5 12 43 47 85 48 45 76 98 95 69 41 27 28 64 52 8 13 17 21 20 19 16
51 54 42 38 23 17 17 16 14 15 14 14 21 14 19 17 18 20 23 23 16 22 25 34 17 11 28 48 89 90 79 82 77 36 26 26 33 30 18 18 22 24 24 23 23
46 33 31 24 14 11 7 8 14 17 22 20 24 20 21 21 20 20 22 25 25 24 25 56 47 66 80 45 46 88 63 52 18 18 21 22 27 27 24 30 21 20 21 21 24
23 24 17 10 8 8 13 18 20 22 20 15 12 11 11 12 14 14 16 19 21 20 21 19 22 30 23 22 24 32 50 46 24 16 21 19 28 29 30 36 62 58 47 37 44
18 12 9 9 14 18 18 15 12 12 10 9 8 8 8 8 8 15 22 23 18 15 19 18 16 19 20 20 20 18 23 20 21 21 26 28 83 64 32 21 10 36 26 45 40
9 8 11 17 18 15 14 9 8 8 9 9 10 10 10 10 8 8 8 10 9 13 17 23 22 19 18 19 16 18 19 20 22 24 27 29 58 100 91 85 66 79 66 73 68
7 12 17 16 13 12 6 7 9 12 11 10 10 9 8 8 6 5 5 6 6 6 6 7 12 12 14 20 21 21 21 23 22 21 20 38 71 97 88 98 44 66 66 94 70
11 16 14 11 13 7 7 9 14 14 10 10 11 10 11 9 7 5 4 5 8 8 10 11 13 13 13 13 14 15 17 16 14 48 33 40 73 98 86 72 55 49 60 54 57
13 12 10 11 9 8 8 9 12 12 13 13 14 12 9 7 6 6 6 10 13 12 13 13 20 22 22 21 20 20 23 24 29 44 47 68 57 69 65 76 87 88 77 92 92
11 8 9 9 9 9 9 11 12 11 10 10 8 4 5 5 7 8 13 12 14 19 29 18 21 23 26 26 28 29 31 33 35 35 38 48 51 88 99 98 100 99 94 96 90
8 8 9 10 10 10 10 11 12 9 8 7 4 7 15 11 11 13 13 14 28 22 21 24 30 29 28 32 31 30 29 28 25 28 34 64 77 73 71 73 71 78 92 67 59
7 7 9 10 10 9 10 12 9 8 7 6 5 16 26 15 16 15 14 30 26 23 28 32 34 32 32 29 23 18 16 19 21 22 30 37 54 67 65 67 66 63 92 88 74
8 8 8 8 8 9 10 10 8 8 7 4 10 30 26 19 15 19 31 27 22 27 32 29 30 34 26 24 19 18 19 21 24 24 25 33 54 58 57 58 76 99 75 65 68
9 9 9 8 8 8 8 7 8 7 6 3 16 29 23 18 19 22 20 23 30 31 27 27 26 25 27 21 21 18 18 20 23 26 29 30 47 49 48 59 63 76 63 74 45
8 8 8 8 9 7 8 8 8 6 6 2 16 26 24 23 20 24 20 28 30 29 27 25 23 23 20 18 16 15 15 16 19 23 23 28 33 44 34 45 42 50 45 38 42
8 10 10 9 7 8 8 8 7 6 5 3 16 24 18 17 16 19 24 26 29 25 26 23 22 21 22 19 18 18 16 15 17 25 27 30 30 29 35 38 50 60 51 49 60
8 11 10 9 10 10 8 7 7 6 5 4 15 23 18 9 11 15 21 22 26 20 21 21 21 22 23 22 22 21 20 17 16 24 30 34 33 30 38 58 69 62 62 66 66
8 10 11 10 9 8 7 6 6 5 4 4 9 18 21 14 15 21 27 22 18 16 18 19 22 24 24 24 23 22 21 20 18 21 25 29 31 34 43 50 51 54 58 59 59

GFSSW_500_rhum_009.txt.gz
RH
51 25 16 27 28 30 40 39 23 23 26 24 31 30 30 28 34 41 48 49 50 53 55 63 80 52 60 98 84 88 66 66 83 98 98 96 96 93 95 85 35 11 26 9 2
46 19 29 29 30 32 40 31 28 48 37 39 49 36 38 31 34 36 59 68 60 55 58 69 27 38 89 84 75 84 85 97 92 84 92 92 95 81 60 53 15 7 11 6 2
15 27 32 34 38 33 38 32 39 63 75 72 49 37 35 31 34 42 64 56 48 47 63 69 35 59 91 74 75 84 98 96 95 94 89 97 80 42 22 9 4 4 6 4 3
28 35 33 40 42 38 38 45 52 63 55 58 55 41 31 40 44 55 60 40 40 38 85 25 36 44 41 49 82 98 97 95 96 95 80 81 69 54 10 8 9 10 9 6 5
36 38 45 46 48 42 35 38 53 64 68 62 63 41 34 43 50 60 46 35 28 56 19 69 95 100 92 97 95 84 84 88 80 78 80 71 36 11 8 10 11 12 12 8 10
41 46 51 47 56 44 40 34 46 57 68 62 72 55 49 59 62 46 33 35 68 27 28 95 100 99 94 88 83 78 72 61 58 63 66 30 5 6 9 11 13 14 14 10 11
47 49 44 54 57 47 48 38 58 55 62 69 88 90 71 52 54 32 32 84 48 29 76 70 88 91 92 94 77 67 59 32 50 57 41 3 7 11 13 11 13 12 13 13 13
41 47 36 54 51 53 48 60 64 61 67 82 88 62 33 34 35 28 31 64 38 81 100 100 98 99 87 85 72 60 29 18 20 14 8 11 14 22 33 12 9 9 11 13 14
39 37 63 56 55 64 78 68 66 73 85 87 28 23 41 36 32 28 33 53 47 76 99 99 97 94 87 73 60 43 30 38 32 24 18 20 28 44 39 10 11 13 14 17 20
35 47 58 60 79 82 85 84 79 48 28 26 35 38 43 37 29 28 41 36 55 78 80 63 61 77 62 44 37 26 69 34 36 36 28 17 20 29 19 15 16 18 20 21 22
25 60 57 76 78 90 86 24 21 28 30 35 35 25 17 16 18 29 24 26 76 88 62 32 59 61 55 54 29 30 43 52 76 78 58 21 17 20 20 19 23 24 26 25 49
36 64 68 72 89 42 19 21 24 26 29 27 23 20 18 16 16 16 25 30 50 65 33 28 46 35 49 88 81 71 38 39 35 48 40 20 20 18 15 14 14 24 62 58 67
33 63 64 57 34 20 21 19 21 22 20 18 15 14 13 12 11 10 10 15 22 45 38 18 25 59 82 85 79 89 78 77 72 46 28 21 18 16 18 23 21 26 73 84 88
24 49 35 39 18 17 15 16 16 16 19 22 25 26 27 28 29 26 16 10 9 12 30 51 28 35 36 26 45 79 83 77 72 63 56 28 23 23 24 27 37 48 76 98 77
37 28 32 16 15 14 15 20 24 24 27 21 17 15 16 19 21 26 24 27 26 25 25 36 31 25 23 25 28 31 61 68 66 66 61 32 28 24 25 28 45 68 100 78 99
24 26 16 13 12 17 22 24 24 22 16 13 13 12 13 14 16 17 19 23 33 29 26 21 18 20 19 18 18 20 22 25 31 32 33 31 29 23 26 63 95 100 93 82 98
25 18 11 10 18 21 22 18 15 14 10 10 10 11 13 11 13 16 19 21 22 26 25 23 22 22 22 26 25 30 31 29 27 25 23 22 20 17 26 41 70 84 85 98 71
19 12 10 15 20 20 15 11 13 10 10 11 11 11 12 11 11 9 7 8 8 9 12 10 12 13 14 13 14 15 15 16 19 22 21 23 37 46 46 42 43 41 41 52 55
12 9 11 18 19 15 10 11 16 11 12 12 13 14 14 13 12 10 8 6 6 9 13 14 14 18 20 20 19 21 23 26 28 29 25 21 18 21 21 22 24 31 30 44 82
10 10 16 18 15 10 10 22 16 14 13 13 13 11 9 6 6 7 6 8 11 14 16 18 24 22 24 26 28 26 19 17 18 17 17 16 15 14 16 17 19 21 23 28 36
10 15 18 15 13 8 12 18 13 14 11 8 7 5 6 9 7 7 8 12 14 23 23 21 25 29 30 28 18 16 17 19 20 19 19 18 18 17 16 16 16 18 19 22 25
12 17 18 13 9 8 12 12 12 12 9 8 6 8 25 24 14 12 13 14 24 19 24 29 29 30 31 23 18 18 18 16 15 15 15 15 16 16 17 19 20 20 20 20 22
15 19 16 13 7 8 9 10 12 10 9 8 6 18 30 26 19 17 15 22 22 24 28 27 28 30 26 22 19 18 14 14 16 16 16 16 15 15 16 18 21 23 23 23 24
18 19 14 11 8 9 9 10 12 10 9 7 5 16 29 22 18 17 19 26 20 26 28 26 29 27 26 23 19 17 16 18 18 17 18 18 15 14 15 16 20 24 26 27 30
17 16 12 9 8 8 9 10 11 10 8 6 4 11 27 26 21 21 27 25 24 30 31 26 25 24 26 25 23 21 19 21 20 20 19 17 16 18 19 22 24 26 28 30 34
16 16 12 12 11 9 9 9 10 8 9 7 5 4 21 30 27 20 27 27 27 31 34 29 29 26 24 23 23 23 24 24 23 22 22 18 18 22 27 37 37 32 31 33 38
16 15 13 10 9 8 10 9 8 9 8 7 6 5 6 24 27 21 23 26 27 31 35 34 28 25 22 21 21 22 24 24 24 24 23 19 20 23 36 42 42 36 34 36 39

GFSSW_500_rhum_012.txt.gz
RH
11 36 46 46 20 24 27 31 34 38 20 30 27 22 25 23 22 33 44 45 65 72 67 56 63 71 74 41 77 85 76 89 93 97 97 89 100 94 95 95 88 34 25 18 9
12 33 18 15 25 30 35 33 37 31 32 48 30 31 31 36 32 35 41 49 54 54 58 61 62 76 62 48 96 90 90 93 89 94 97 97 97 91 69 66 26 12 10 13 5
19 41 19 33 34 33 39 36 37 33 52 65 45 36 38 40 33 37 46 59 62 63 54 58 72 68 43 97 96 93 91 76 66 96 94 97 95 86 30 11 7 8 10 13 5
22 36 23 36 37 42 43 38 38 46 58 63 54 42 41 34 36 40 60 70 58 44 57 26 50 37 98 93 97 100 91 84 81 98 93 94 79 74 32 8 9 8 8 6 5
27 20 27 40 44 49 48 41 38 47 67 58 70 51 50 37 52 51 62 57 40 28 61 81 41 85 94 100 98 94 90 95 95 81 77 61 64 52 19 14 13 11 10 10 9
23 19 40 49 50 48 57 46 41 39 44 55 66 60 63 50 64 60 58 43 35 72 47 81 100 100 97 91 91 91 90 90 90 80 62 58 44 12 10 12 13 14 14 14 14
20 28 45 45 47 46 62 50 46 45 53 60 67 78 85 63 63 69 38 43 40 33 100 88 98 92 80 79 91 90 70 40 40 49 65 53 6 7 15 14 15 17 18 18 17
20 32 40 40 42 51 53 51 51 56 55 61 66 96 80 58 69 85 34 42 54 48 100 100 100 96 85 89 86 75 40 14 32 33 14 7 6 10 30 24 18 20 16 17 21
22 31 38 38 59 55 51 51 62 68 60 67 82 70 38 56 63 37 32 68 68 98 100 96 96 97 99 86 72 83 51 12 12 8 10 15 20 31 28 40 27 17 17 20 21
20 29 34 46 62 60 68 78 75 76 82 90 42 26 40 35 41 36 53 72 91 96 87 92 95 92 93 79 66 49 33 20 18 14 14 13 23 51 60 37 25 21 20 22 22
21 37 30 54 61 76 81 88 83 68 36 29 32 36 47 44 35 35 61 82 92 100 96 97 97 96 96 82 53 47 60 89 51 16 19 20 24 27 26 26 26 22 24 24 27
23 38 40 60 64 81 88 60 24 26 25 36 31 25 27 36 31 36 49 75 97 95 99 79 82 88 79 64 37 29 39 52 43 23 23 45 32 21 18 15 15 17 29 60 61
32 33 48 63 69 82 31 23 26 27 31 24 20 17 16 18 23 36 47 77 95 90 72 48 38 42 57 37 30 59 32 49 61 49 35 35 22 18 18 18 16 18 25 42 46
38 23 45 63 42 22 21 22 26 27 21 18 16 16 13 13 16 22 30 67 86 69 80 54 52 55 55 73 73 70 65 47 70 72 71 57 40 23 18 17 19 24 30 41 50
35 14 40 39 16 18 19 17 19 18 18 17 18 20 20 13 9 8 12 22 48 32 24 30 33 47 79 70 56 60 51 47 67 70 75 60 38 18 18 21 26 32 44 57 58
26 24 35 17 12 15 15 16 18 24 26 27 28 30 29 30 27 21 15 16 18 21 25 39 43 43 36 31 26 29 33 40 47 40 30 17 19 18 22 26 27 48 62 62 72
16 30 24 12 12 13 19 21 23 24 18 17 16 15 18 18 19 20 22 24 26 28 26 27 25 24 22 22 20 21 21 21 22 24 24 25 22 16 18 30 50 53 48 60 49
13 28 14 10 12 20 23 24 22 20 14 13 12 12 12 14 15 17 20 21 27 28 31 32 30 22 18 19 22 24 25 28 25 19 17 18 17 20 23 25 28 32 32 32 30
15 20 11 13 16 21 22 18 17 14 11 10 11 11 11 11 11 9 8 8 8 8 10 12 12 14 13 14 15 15 17 19 22 23 23 18 16 16 18 19 20 20 21 21 21
24 15 11 15 19 20 17 13 13 10 11 12 13 14 14 16 15 14 14 11 8 8 10 11 13 18 24 24 23 23 26 26 20 16 16 17 16 17 16 16 17 17 18 18 18
24 10 11 16 19 18 13 11 20 12 14 14 15 12 9 10 11 10 9 9 10 13 14 15 25 28 29 27 30 28 19 17 20 19 18 18 17 16 16 17 18 20 21 23 24
18 7 12 17 18 14 10 15 17 16 14 10 8 6 9 9 10 7 8 9 14 17 23 29 28 28 33 33 26 17 18 20 16 15 15 15 15 14 13 14 15 18 24 26 26
12 9 15 17 14 11 9 20 18 16 13 9 8 7 24 30 23 12 10 13 13 23 23 26 28 31 32 28 21 18 18 15 15 17 17 16 14 15 15 18 21 30 31 31 30
12 12 17 17 14 10 8 16 14 13 11 10 8 8 32 33 25 18 16 16 19 22 25 30 29 32 32 26 25 21 19 17 17 18 18 19 17 16 17 21 24 30 37 38 35
10 12 14 15 12 8 9 13 12 12 11 9 7 6 28 31 24 21 18 15 26 22 29 29 28 28 26 28 26 22 21 20 19 21 21 21 21 20 17 18 21 30 33 37 39
11 13 15 17 14 9 8 10 10 12 11 9 8 6 12 32 26 18 18 23 24 23 29 31 29 29 26 27 25 23 22 22 23 24 23 22 22 22 21 20 20 22 29 35 42
12 16 17 16 15 9 8 9 11 12 10 10 8 7 6 15 26 20 21 24 22 23 27 31 30 28 27 29 26 22 22 22 21 22 22 22 23 23 23 23 22 23 27 39 48

GFSSW_500_rhum_015.txt.gz
RH
10 9 7 15 36 19 22 29 32 36 34 35 21 40 33 24 23 22 24 34 29 49 56 48 61 58 69 78 72 56 69 92 80 84 97 97 95 97 96 97 96 75 33 33 31
12 11 8 19 34 24 32 32 33 40 34 31 35 39 28 28 31 32 29 41 50 71 73 60 62 60 64 79 53 48 99 92 98 90 97 97 96 96 94 94 63 31 13 15 8
14 13 10 15 24 22 33 40 44 41 37 31 56 61 32 36 40 35 34 42 48 58 66 62 60 64 73 59 58 96 95 81 95 92 89 95 98 90 66 26 16 11 8 13 6
15 15 11 19 18 20 34 47 48 41 39 43 62 59 40 38 40 36 40 51 57 54 59 58 58 59 78 59 89 98 94 92 97 88 98 93 88 53 27 20 9 9 10 8 8
16 17 13 19 21 27 42 48 50 46 42 57 64 62 54 53 38 45 45 51 80 61 41 36 50 81 73 93 98 92 89 100 98 91 83 66 38 32 23 13 12 12 12 13 14
16 18 16 20 26 36 44 46 51 51 41 42 60 63 60 55 47 56 59 57 61 36 45 35 81 100 96 85 95 97 96 95 95 91 70 58 18 36 25 18 14 13 17 20 18
17 19 18 22 32 37 36 42 57 52 46 40 45 61 68 57 53 57 58 53 52 59 66 74 89 79 97 97 96 90 83 60 90 64 69 35 18 22 14 15 19 23 20 18 22
18 19 19 23 32 33 36 52 57 56 53 48 58 66 73 64 51 65 44 36 79 72 86 89 93 92 90 97 96 97 72 24 33 50 54 19 19 20 27 20 42 27 22 20 26
20 20 20 23 30 31 49 55 54 53 52 58 64 70 94 57 57 78 48 53 66 99 98 98 98 98 97 82 88 81 56 26 52 46 37 13 13 20 26 29 40 27 22 22 24
21 19 22 24 28 34 57 56 70 68 66 62 78 86 90 61 66 68 37 72 78 93 99 92 99 99 91 82 82 72 71 26 23 13 13 18 26 48 61 58 57 30 21 19 23
21 17 22 27 32 48 63 78 75 72 78 87 72 48 30 51 60 43 35 94 100 87 98 97 96 93 93 79 70 48 44 23 21 21 27 27 29 50 63 42 38 34 22 24 23
21 16 22 31 32 52 69 81 90 74 68 45 32 34 39 37 40 38 37 78 99 92 100 94 84 99 88 80 66 46 44 71 38 28 21 30 40 32 27 23 25 32 27 31 35
20 16 26 29 34 64 73 72 63 26 28 33 35 35 46 51 38 41 59 85 90 91 86 88 84 89 80 71 76 68 85 81 73 61 41 37 27 27 23 21 20 22 25 25 26
17 16 30 29 48 68 74 25 23 26 32 24 17 12 16 22 30 33 67 76 93 98 86 72 43 75 71 73 70 48 69 65 78 91 97 49 35 29 20 18 22 24 25 30 35
16 18 28 28 43 26 21 23 30 32 24 20 18 15 15 18 23 30 51 71 90 97 83 75 62 54 60 69 66 45 76 70 52 40 37 40 29 22 16 22 25 22 26 35 39
16 18 24 35 27 18 20 24 25 21 18 18 18 15 12 13 14 20 37 42 89 86 74 65 52 39 48 48 69 80 62 61 52 34 23 24 27 15 21 24 20 29 39 36 38
16 20 17 38 17 16 17 17 16 18 21 26 27 27 21 16 11 10 12 15 24 38 26 29 53 49 46 66 39 35 30 26 22 18 16 21 20 17 18 23 33 28 26 33 36
15 24 23 30 13 15 12 13 18 28 27 27 24 26 28 26 26 24 24 24 25 26 30 31 34 31 34 33 27 22 21 20 18 21 22 17 16 21 22 22 19 16 16 16 18
15 26 22 15 13 13 11 17 24 22 19 16 14 13 14 15 15 17 20 21 23 30 29 27 24 26 24 23 20 20 19 21 18 18 20 18 16 15 15 14 15 16 17 18 20
18 26 19 11 13 15 18 22 23 16 15 13 12 12 13 13 12 11 11 10 10 11 9 10 10 11 12 13 13 14 17 19 23 20 16 18 16 17 17 17 18 19 19 21 24
22 22 17 11 16 18 19 20 18 14 12 12 12 13 14 15 16 16 15 13 13 10 9 10 10 13 14 20 23 23 27 27 19 19 19 18 18 18 16 15 15 15 18 27 28
25 19 15 13 17 18 20 14 12 11 11 13 15 14 10 8 8 12 14 11 10 11 11 14 15 18 23 28 29 31 26 18 20 20 16 15 16 16 15 14 15 19 24 29 35
30 15 14 13 16 18 15 11 13 14 14 14 11 8 8 15 15 11 8 8 9 16 17 20 29 32 26 29 29 26 19 19 19 16 16 18 18 18 16 16 16 17 20 22 24
28 14 12 14 19 20 12 11 19 17 15 13 10 7 9 32 32 25 13 10 12 15 20 27 30 29 31 32 29 24 19 19 17 17 18 20 19 20 20 20 20 18 18 19 20
23 16 10 11 17 17 11 11 22 17 15 12 10 8 9 34 34 28 19 16 15 16 25 24 28 28 30 29 26 22 21 20 19 20 20 22 22 24 22 22 22 22 22 23 22
15 18 11 16 21 16 9 13 21 18 14 12 10 9 9 29 36 26 20 19 17 21 23 25 29 26 26 25 23 24 24 22 24 23 22 23 22 23 23 23 23 23 23 24 24
14 18 17 19 19 14 8 10 15 14 13 13 10 10 7 8 29 28 22 18 16 21 20 23 27 26 22 23 21 18 22 23 23 23 22 21 20 19 20 22 25 25 25 24 25

GFSSW_500_rhum_018.txt.gz
RH
12 12 12 14 12 8 16 21 24 31 38 40 38 30 30 36 30 20 19 20 25 25 24 32 32 27 44 66 78 70 60 68 88 92 77 85 93 79 97 97 97 95 45 45 57
13 13 13 15 16 10 16 19 23 35 43 42 37 28 38 34 26 26 24 25 39 40 52 60 66 64 62 74 77 73 46 74 95 90 82 98 94 90 97 96 94 78 25 8 6
14 14 14 16 18 13 15 19 29 43 48 41 38 39 50 40 32 38 33 34 42 46 73 72 62 71 68 71 75 63 38 83 97 93 91 98 98 98 94 94 67 39 16 10 9
15 15 15 16 18 14 17 24 39 45 44 46 40 57 58 57 43 36 35 40 47 51 65 66 66 63 62 61 70 39 64 88 86 97 95 97 90 71 34 47 60 21 16 8 10
17 16 16 16 18 14 20 32 38 40 44 48 48 57 60 59 45 35 41 51 51 58 56 60 56 52 39 78 74 76 98 85 92 95 82 61 54 41 30 19 13 10 10 11 16
19 18 17 16 19 16 24 35 38 39 48 51 43 62 57 58 47 36 40 57 70 74 58 52 39 59 98 96 93 100 95 96 97 89 63 39 34 35 23 19 18 16 17 18 22
22 21 18 17 19 17 27 33 31 48 55 49 44 28 42 62 44 50 46 63 81 33 31 37 67 83 80 100 98 98 96 100 94 78 74 16 22 21 20 17 18 21 20 24 21
27 24 20 19 18 20 28 27 39 52 50 52 54 53 55 72 45 54 56 51 77 46 54 58 81 84 96 96 97 95 94 78 80 78 63 25 33 14 17 35 28 26 24 24 24
29 24 22 19 17 22 30 32 50 55 55 52 57 61 68 77 53 60 43 69 70 88 90 86 100 99 97 97 97 96 64 32 39 46 51 17 46 30 45 56 48 37 30 27 28
26 24 22 19 17 25 33 50 55 61 64 66 53 62 76 77 61 59 66 81 90 94 96 98 99 98 98 87 91 89 82 38 41 50 29 35 49 50 47 79 69 50 34 30 32
25 23 22 20 18 29 34 48 53 64 69 62 62 72 64 80 61 63 78 100 84 96 99 100 99 100 100 98 92 76 73 58 35 26 24 55 72 88 94 91 70 55 38 27 23
24 22 22 18 19 27 42 39 38 55 77 83 82 73 43 58 63 83 76 94 80 98 89 87 98 100 99 94 76 50 66 87 71 54 53 52 56 61 59 47 35 28 31 29 25
23 22 21 16 24 26 39 40 45 66 74 48 51 30 31 45 64 44 85 84 89 82 100 100 94 97 96 94 82 70 76 100 93 54 54 55 41 30 27 25 26 29 26 24 22
24 22 22 16 28 27 40 41 56 34 26 26 31 36 42 38 42 44 81 100 99 89 98 95 89 94 98 87 84 70 73 81 91 83 94 75 86 26 24 25 25 27 26 24 24
24 22 21 18 30 18 33 30 29 22 25 29 22 18 36 49 38 40 51 90 99 99 96 92 74 66 86 66 64 72 62 51 48 74 53 35 32 69 22 24 28 25 24 24 35
21 23 19 22 27 20 26 17 18 25 28 20 17 15 17 24 29 33 40 78 90 99 100 100 98 83 68 50 70 82 44 54 93 83 50 28 28 76 21 26 22 20 22 33 38
22 24 17 21 27 23 17 15 19 26 22 19 17 13 13 18 22 27 34 45 68 69 81 77 68 67 56 60 57 47 82 58 38 42 36 24 20 16 18 20 20 22 32 25 24
24 24 17 22 22 21 12 14 20 19 15 15 17 16 15 12 12 15 20 29 34 52 69 72 40 51 60 47 49 73 48 33 27 23 20 20 16 20 24 22 19 17 16 16 16
26 23 16 21 22 18 9 11 12 17 19 27 29 29 29 27 23 16 15 16 18 21 27 31 31 34 31 33 34 31 27 23 22 18 16 19 22 17 15 14 14 15 16 18 20
29 21 17 22 24 13 8 10 12 22 25 22 18 17 16 16 17 18 21 23 24 27 32 32 28 27 25 24 22 22 21 19 15 15 20 17 18 16 15 16 16 17 18 16 22
27 20 19 23 21 9 6 11 17 20 18 16 13 13 14 12 13 13 12 13 11 11 11 10 10 10 10 11 13 14 14 16 22 22 18 19 20 18 17 15 14 14 14 16 23
26 19 20 22 18 8 8 15 20 17 14 13 12 12 13 13 15 16 15 15 14 12 11 9 8 9 11 12 16 20 22 28 25 19 18 16 16 16 16 16 16 15 16 18 20
24 18 23 21 15 8 13 20 20 14 12 11 13 15 14 12 9 8 7 9 9 10 9 10 10 11 12 17 24 25 30 25 18 20 18 15 18 18 19 19 19 20 20 20 20
26 21 25 20 15 11 18 21 16 11 11 13 14 12 9 8 12 17 11 9 7 8 12 15 17 28 31 28 30 29 28 19 18 19 16 16 20 20 19 21 23 24 23 23 23
24 19 19 18 12 14 22 20 12 10 12 16 13 11 8 10 30 32 30 18 11 10 13 16 23 28 30 28 30 29 26 20 18 20 19 19 21 24 23 22 22 22 22 22 23
22 21 22 23 12 18 22 16 11 13 16 15 13 11 8 12 30 33 25 25 18 16 15 22 24 26 26 26 28 27 25 21 22 23 22 24 22 23 22 22 21 19 19 21 24
24 25 24 23 13 20 20 13 12 16 16 14 12 11 8 8 20 36 28 21 19 17 15 21 22 26 25 23 20 17 21 22 22 24 25 24 26 24 22 22 21 22 25 28 30

GFSSW_500_rhum_021.txt.gz
RH
14 14 13 13 13 15 16 14 10 16 19 28 37 40 37 24 32 29 22 21 20 25 26 25 24 34 42 56 55 77 67 81 90 65 97 59 54 53 55 80 85 90 84 92 87
16 16 14 14 14 15 16 14 13 18 23 34 40 42 36 30 36 32 32 30 26 29 25 31 52 56 39 57 69 77 66 82 89 91 67 74 66 77 74 90 84 91 96 83 52
19 20 17 16 16 16 17 15 15 21 30 30 40 44 40 50 50 35 35 31 29 33 53 66 76 79 62 56 70 73 75 100 65 87 93 79 79 76 76 84 91 96 64 23 19
23 24 24 17 19 17 17 15 16 26 33 36 44 44 53 57 56 48 35 31 36 48 62 78 83 72 74 68 68 68 83 64 55 97 74 75 89 92 84 97 84 79 64 63 14
27 27 24 20 22 19 17 14 18 27 28 40 50 44 52 58 55 47 33 39 41 49 56 64 73 67 63 62 51 84 77 45 84 92 90 88 88 89 96 46 52 28 17 9 10
32 31 24 25 25 22 18 15 22 27 26 48 55 44 48 59 56 45 35 40 52 65 58 61 65 54 55 71 88 89 65 92 95 94 98 72 75 98 82 25 15 16 16 17 16
36 33 25 27 26 24 18 15 24 27 30 51 51 44 35 42 62 46 45 46 64 74 75 64 49 54 60 76 91 100 98 97 96 97 56 92 47 62 37 23 16 17 18 19 19
38 34 26 29 25 23 18 17 27 28 50 50 53 46 43 52 66 49 57 52 48 55 34 44 52 62 70 87 100 99 96 100 93 96 88 63 95 38 22 21 19 19 20 20 19
37 35 29 32 24 23 16 22 24 38 52 52 50 49 52 64 64 60 57 47 82 54 55 47 75 98 96 99 99 96 91 97 62 92 62 90 99 14 19 30 33 28 26 24 24
32 32 33 34 23 22 16 23 27 41 50 57 56 54 58 72 74 60 46 76 73 84 87 88 98 99 97 98 99 95 91 70 78 51 67 52 74 26 46 71 68 50 37 29 27
25 29 33 36 24 21 16 22 29 38 37 46 57 55 66 72 78 66 46 81 87 95 100 99 98 91 100 96 99 97 92 71 77 50 74 75 36 25 58 82 75 68 54 41 30
23 23 34 32 24 20 17 22 32 43 50 44 49 58 74 64 75 68 58 85 88 100 94 99 97 98 99 100 96 91 87 94 44 24 35 40 90 43 83 87 76 55 50 41 41
26 22 29 28 24 19 18 22 33 45 59 64 66 63 77 50 71 73 79 100 100 96 99 90 98 100 98 98 98 99 92 100 91 35 36 97 100 36 36 41 44 43 52 52 40
25 25 30 24 22 18 17 23 35 57 48 43 33 27 28 34 58 82 65 100 94 99 99 90 99 99 100 99 99 99 62 98 83 82 82 49 88 97 37 23 29 36 34 33 35
23 27 27 26 22 18 20 20 46 50 31 28 18 25 28 36 59 73 49 93 100 88 100 100 100 100 93 97 75 96 70 64 70 45 99 83 66 89 87 40 27 30 30 34 34
20 29 24 28 22 19 19 21 34 32 41 16 20 24 35 46 43 85 43 77 87 94 97 94 94 72 92 67 54 43 59 53 55 79 86 77 99 92 97 64 32 26 25 28 26
15 28 30 28 22 20 19 22 25 23 21 16 19 18 19 39 41 42 42 52 100 92 89 100 100 94 88 79 43 59 86 95 91 100 86 94 67 76 95 79 44 20 21 18 19
12 26 32 28 22 18 20 24 28 18 22 16 17 18 16 21 27 31 86 91 86 99 89 90 78 42 38 71 100 50 100 100 86 93 61 76 39 63 51 23 17 15 17 19 19
6 24 29 28 21 21 22 26 12 22 18 15 15 12 12 13 18 24 28 90 89 39 100 100 99 74 34 50 57 80 50 55 60 28 22 23 57 69 20 15 14 13 14 14 16
2 22 32 27 20 21 21 20 14 15 13 11 14 14 20 16 13 11 13 68 29 18 40 83 96 49 28 30 29 29 29 28 26 24 22 69 72 67 24 15 16 16 16 17 15
2 18 31 27 20 20 19 12 12 11 10 17 25 26 26 21 21 21 77 23 24 26 28 42 35 42 27 23 45 24 22 22 29 41 18 22 61 55 19 17 16 15 14 13 14
2 12 26 27 21 18 24 9 11 11 14 20 16 14 14 13 12 14 24 18 15 13 13 12 11 10 13 8 10 10 11 14 16 21 23 19 26 21 16 16 16 16 17 18 19
2 15 32 26 20 24 26 10 8 16 18 16 14 12 11 12 13 14 15 13 14 15 13 13 12 10 8 8 9 12 22 25 25 26 19 19 26 15 15 17 18 19 20 22 23
6 12 31 23 22 38 36 8 8 19 17 14 11 10 13 15 13 10 8 9 9 10 12 11 10 10 13 97 67 20 24 28 28 18 17 18 17 16 16 17 18 20 22 22 22
5 9 15 13 21 46 22 10 10 21 16 12 10 13 13 10 8 8 12 19 11 8 8 8 11 16 23 32 33 24 28 28 23 18 16 18 20 20 22 19 21 21 22 22 22
3 15 24 29 24 30 16 10 14 22 15 10 12 13 11 8 9 25 36 34 29 16 10 10 14 20 25 27 26 25 28 28 26 26 24 24 22 27 24 23 23 24 26 28 32
6 36 26 32 25 31 14 12 21 23 14 10 15 13 10 8 11 25 36 33 28 25 17 14 16 25 24 28 25 18 26 28 27 26 26 25 26 25 21 23 26 29 30 33 36

GFSSW_500_rhum_027.txt.gz
RH
29 28 32 36 34 29 21 20 17 17 17 12 8 8 19 21 27 43 36 30 29 28 28 24 24 20 20 55 32 40 36 36 91 97 98 83 92 97 96 86 35 36 42 45 93
34 32 32 37 38 30 24 23 19 18 17 11 7 11 21 26 38 39 38 35 37 28 25 27 33 26 46 88 92 71 28 86 90 98 93 88 86 95 94 75 40 56 83 86 97
39 37 35 38 38 31 27 26 20 19 15 10 8 11 22 27 43 46 48 39 30 22 24 33 36 29 68 77 89 79 62 96 84 69 98 82 64 60 90 49 80 81 92 96 91
44 41 38 41 38 32 30 27 20 20 16 9 8 13 19 35 35 43 48 34 26 28 41 62 68 56 83 62 78 69 96 97 92 83 69 67 73 98 73 83 68 84 94 96 98
46 45 41 43 40 35 31 27 22 20 13 8 9 14 28 38 35 40 41 40 30 35 44 60 83 92 85 84 79 79 92 98 99 71 78 66 75 74 86 79 80 100 96 94 90
50 47 44 46 42 38 33 28 24 19 11 8 12 16 33 33 30 34 51 42 35 40 44 59 80 83 87 80 80 92 95 95 99 56 97 72 61 92 96 93 87 98 85 65 58
52 46 48 51 45 40 30 32 28 19 11 9 15 14 30 37 32 42 45 37 39 44 52 55 63 67 79 81 94 100 84 79 94 79 62 88 82 71 91 94 52 43 29 65 19
53 50 52 52 48 40 28 33 29 21 10 10 16 14 23 32 37 38 35 40 52 52 63 70 63 56 68 60 81 67 66 63 95 81 92 90 66 59 57 41 24 17 14 15 14
58 52 54 54 47 35 26 30 25 21 10 10 16 16 22 25 31 40 53 41 52 75 67 71 52 54 59 62 52 74 93 88 79 88 83 71 85 39 29 41 42 28 20 18 16
59 53 58 55 46 31 25 26 24 20 11 10 15 18 22 21 22 38 56 39 54 55 56 43 65 51 57 69 81 87 98 81 96 96 90 74 87 38 17 13 15 23 14 19 15
57 54 56 53 41 30 24 19 22 20 12 9 11 15 29 25 27 32 42 52 52 74 78 43 75 65 68 98 80 90 96 98 91 100 60 47 32 41 16 20 19 41 57 11 14
76 64 58 58 40 31 23 19 25 16 12 9 11 16 22 39 37 35 39 50 54 76 95 60 81 72 76 97 93 80 90 100 81 76 44 91 76 31 61 33 28 26 14 12 13
88 77 69 74 50 31 25 22 25 21 13 9 12 18 27 29 38 35 38 52 52 65 92 78 62 82 95 80 96 94 94 98 95 68 43 89 85 87 71 34 22 19 16 14 13
89 80 82 76 51 37 26 27 32 22 14 13 16 29 22 21 24 22 40 52 61 80 98 94 97 92 81 79 98 80 100 82 62 45 30 42 75 72 94 89 88 37 21 17 13
90 88 72 55 49 42 37 36 30 20 15 12 18 24 11 19 21 26 36 58 97 78 76 71 88 57 84 87 89 96 94 82 87 97 94 86 85 72 94 95 96 72 51 18 11
85 64 75 65 45 53 40 36 31 22 21 16 13 22 12 25 18 46 59 72 95 65 82 95 82 59 65 86 98 77 74 51 79 57 81 54 80 97 83 96 74 94 81 56 31
75 45 45 50 26 41 37 35 31 25 28 19 16 18 16 28 18 29 58 74 57 76 62 70 91 97 92 84 84 85 39 42 37 74 74 70 67 97 92 93 61 52 35 40 24
71 34 31 24 22 18 23 29 26 24 26 28 17 13 19 27 32 39 75 74 49 50 57 86 90 66 86 88 54 63 37 54 69 75 69 76 93 87 74 60 52 42 47 19 15
94 58 42 28 41 19 17 20 20 30 37 34 24 14 19 25 42 48 97 57 46 39 46 62 82 91 87 88 72 80 68 66 92 83 86 69 62 82 60 39 74 67 19 15 16
85 89 63 19 57 29 26 26 19 35 41 35 26 18 17 27 54 38 43 44 91 88 94 90 75 84 99 79 40 40 95 76 48 25 15 18 59 52 88 88 92 49 17 17 16
44 65 20 11 24 38 48 33 20 37 41 35 43 31 20 36 60 59 28 51 75 100 98 91 54 87 67 66 37 36 30 30 28 26 17 18 57 97 97 87 75 50 22 17 16
16 54 16 12 28 45 51 28 25 39 38 25 27 39 16 84 70 22 22 76 64 89 91 87 37 28 28 27 31 27 25 57 32 27 16 10 12 22 74 76 70 55 20 15 14
13 12 6 7 17 44 40 26 27 34 37 22 14 22 13 100 97 76 79 97 99 77 19 23 15 19 26 24 13 17 15 12 11 8 10 15 18 25 28 27 27 21 20 15 14
4 6 5 5 16 28 38 10 22 31 37 25 14 20 21 87 96 99 52 82 42 32 23 22 19 14 12 11 16 10 24 83 15 10 14 21 26 33 23 20 18 17 17 16 19
4 5 6 13 20 18 23 8 28 30 29 27 10 18 28 22 69 73 31 16 12 12 14 12 11 11 11 11 13 11 34 99 36 17 18 32 28 26 30 24 21 14 14 15 20
4 4 4 8 12 11 15 7 30 29 37 25 8 16 26 20 18 21 14 13 13 11 8 7 8 7 7 8 10 11 21 46 49 34 32 30 30 29 24 22 21 23 24 25 27
3 4 3 5 12 14 11 8 23 30 37 26 13 18 24 19 16 14 14 14 10 16 18 24 23 16 12 9 10 14 22 31 34 37 38 35 32 30 28 21 18 22 24 29 29

GFSSW_500_rhum_030.txt.gz
RH
27 30 30 31 31 31 32 30 26 24 20 14 10 8 7 8 13 35 36 30 28 35 35 29 21 21 20 22 31 78 94 92 89 89 80 80 98 98 97 91 86 94 78 70 56
33 38 37 36 37 34 35 32 28 24 18 14 10 8 7 8 20 39 36 35 32 28 23 25 22 24 24 52 66 88 63 79 83 94 78 74 84 81 74 81 97 80 66 55 83
40 45 44 41 43 40 39 35 30 25 18 15 11 7 7 10 26 35 37 41 32 23 25 24 34 38 33 94 95 72 47 74 91 91 70 75 72 57 53 77 72 65 61 85 80
48 50 50 48 49 46 44 38 33 25 18 17 10 7 10 16 24 27 31 36 40 28 39 45 48 59 66 97 96 82 79 78 86 78 59 75 64 56 73 84 62 59 67 60 97
55 55 54 52 53 51 49 41 35 26 18 19 9 8 12 20 25 24 32 46 41 34 40 59 74 85 88 87 83 79 84 83 62 67 62 86 78 97 89 60 62 67 74 96 97
61 58 56 57 57 54 51 43 35 26 20 23 9 10 13 16 21 27 32 41 33 36 41 49 62 80 80 87 88 85 87 85 91 61 92 90 86 99 78 75 62 81 98 96 91
64 61 59 58 59 61 54 44 33 22 22 25 9 11 14 15 19 24 29 31 38 42 45 64 69 79 83 62 86 96 99 96 57 88 63 54 98 86 70 86 73 69 73 95 23
67 66 63 60 62 60 54 44 30 20 25 24 9 10 16 15 18 28 32 26 46 58 51 58 67 83 89 59 79 89 73 91 86 87 95 80 73 66 49 34 44 46 44 26 22
75 71 65 64 64 65 54 44 28 20 29 21 10 10 16 18 15 24 32 33 52 58 64 60 57 79 74 69 66 51 60 76 88 98 95 88 85 52 33 55 43 23 19 19 17
96 90 82 77 84 75 55 42 27 25 27 19 11 11 15 21 24 21 32 25 47 53 50 61 57 61 63 66 64 67 84 85 100 98 100 93 61 52 40 18 25 32 19 19 15
95 96 96 93 95 73 52 41 28 28 21 20 10 9 12 21 26 30 32 23 38 52 55 44 60 52 57 69 84 98 86 86 94 93 93 100 60 52 24 17 27 50 47 24 17
96 97 95 96 96 89 62 50 27 24 25 21 12 11 12 22 25 39 34 27 40 55 73 45 56 56 76 99 91 91 95 92 81 66 65 100 92 57 33 19 31 31 19 19 22
97 96 97 95 95 94 87 54 27 24 25 22 14 13 14 23 17 24 22 28 41 66 72 66 57 62 90 100 87 88 71 74 99 86 75 99 87 43 18 30 55 48 18 18 18
95 98 96 95 96 95 87 60 29 25 27 25 16 14 22 18 15 18 14 29 28 67 65 74 58 80 100 95 68 78 72 61 90 100 50 39 60 50 35 41 48 74 63 12 18
96 95 96 94 98 95 84 69 37 27 29 24 16 19 18 14 8 18 15 27 32 52 70 68 68 71 92 68 73 79 92 92 99 92 20 37 68 76 97 68 76 87 71 40 25
97 97 93 99 97 80 90 74 43 36 32 24 20 20 18 12 14 20 20 27 49 62 76 73 67 70 79 88 85 70 96 78 73 88 80 83 50 68 93 88 73 91 72 32 23
96 99 88 96 96 87 83 62 49 39 34 25 22 22 17 9 18 21 18 23 43 67 70 75 72 72 85 89 82 70 71 65 76 85 92 76 56 61 90 89 62 43 67 26 17
97 92 98 84 92 90 88 65 56 45 38 28 26 21 20 10 20 24 18 26 48 73 57 73 61 80 75 74 46 71 70 47 46 36 47 48 62 85 79 72 58 52 63 21 15
95 87 93 91 92 92 77 72 45 44 37 34 31 23 20 10 18 30 25 32 38 60 60 60 75 74 77 71 45 77 80 59 61 66 60 78 78 67 70 55 42 64 24 18 18
35 84 80 81 72 86 71 50 44 29 34 37 32 26 23 12 20 30 32 42 41 48 57 56 91 97 68 64 75 52 72 87 73 74 59 42 45 36 37 34 58 77 52 22 18
20 26 73 58 86 38 57 40 34 23 26 37 36 29 22 12 21 32 27 43 51 51 87 100 80 66 76 79 88 43 36 81 95 60 23 19 27 18 28 48 65 62 55 38 18
20 27 25 68 81 68 50 45 44 20 19 39 40 32 29 14 18 29 19 28 34 51 83 80 90 87 86 58 67 37 32 32 46 71 56 18 16 41 49 42 45 40 19 19 20
9 21 22 15 64 64 54 57 64 22 19 31 34 34 30 15 29 42 9 19 27 29 65 75 71 79 58 79 35 23 22 22 36 53 31 14 14 29 25 20 21 25 15 14 15
7 10 21 12 49 66 63 59 46 26 21 24 34 33 26 16 22 57 11 14 27 34 73 74 34 19 19 25 22 12 10 32 27 16 17 10 20 40 25 27 26 19 13 13 15
5 7 11 22 31 51 53 52 41 29 19 32 38 42 29 14 9 66 61 24 34 75 100 58 31 25 18 14 13 14 11 13 20 35 64 20 20 34 39 24 18 15 14 12 13
4 6 8 14 18 33 53 48 38 14 22 26 31 44 29 11 10 56 88 35 31 32 39 34 31 21 14 12 12 12 11 9 25 100 86 35 35 35 32 26 23 22 23 20 17
4 4 7 10 15 15 36 45 34 13 19 27 32 51 30 14 49 52 56 36 34 17 17 19 15 12 9 10 9 9 8 11 24 33 38 31 30 31 31 29 28 30 31 28 25

GFSSW_500_rhum_033.txt.gz
RH
25 23 23 26 32 34 33 35 35 36 30 26 18 15 12 8 8 11 22 30 29 26 26 25 25 27 22 19 25 33 67 94 94 87 96 100 95 82 70 74 77 73 73 87 83
29 27 27 28 35 39 39 38 38 38 33 27 17 15 13 7 9 14 23 29 29 32 26 20 29 31 30 26 47 63 63 94 99 99 94 98 90 72 82 74 76 79 60 79 66
31 31 31 31 39 43 43 42 41 42 36 27 17 14 13 8 11 15 25 28 37 38 26 31 31 39 40 92 70 88 90 99 95 94 86 87 69 55 48 45 66 72 72 67 89
35 34 33 36 44 46 47 47 44 44 38 28 18 17 11 8 12 16 26 28 41 36 34 41 42 40 87 96 91 82 84 90 87 89 90 69 57 60 60 68 74 65 55 78 78
38 38 40 44 48 51 51 50 47 47 40 27 18 19 10 9 13 16 23 25 32 31 33 41 56 50 70 70 87 100 100 64 73 86 69 79 79 74 80 72 58 62 53 72 93
46 47 50 52 56 56 54 53 50 51 40 25 19 19 10 11 13 17 25 25 26 34 33 45 52 71 79 56 87 100 92 89 72 66 72 64 66 82 85 97 84 94 99 98 99
55 55 58 56 61 60 59 55 55 56 39 26 19 18 11 11 15 16 26 18 22 34 44 45 70 85 91 79 73 97 81 94 82 51 62 71 88 83 84 90 56 75 86 94 46
69 68 69 66 65 64 61 60 58 58 38 26 20 16 11 13 17 18 18 21 38 51 56 54 58 75 99 87 83 95 78 91 73 63 68 85 68 47 56 37 51 32 23 21 19
85 84 87 84 76 68 62 62 62 59 35 25 19 16 12 12 17 24 18 24 36 46 40 52 55 69 98 99 87 78 56 71 66 70 87 96 78 59 36 54 34 21 19 18 17
96 96 96 94 89 78 68 66 71 57 32 22 19 18 14 10 17 24 29 27 32 62 52 54 57 68 81 93 68 68 57 59 65 74 92 97 83 61 39 51 34 39 22 18 17
93 97 93 97 97 94 85 76 76 51 30 23 20 18 13 11 14 26 30 30 32 56 38 39 47 58 60 70 70 64 70 69 86 78 68 98 91 50 42 47 43 58 54 21 22
97 98 96 96 96 96 86 78 82 52 37 26 21 21 16 13 16 21 22 29 32 53 42 44 58 55 54 59 88 62 75 88 73 60 73 85 96 53 23 34 32 38 25 27 20
91 96 95 96 96 96 88 81 86 62 41 26 23 22 18 16 19 17 17 23 40 48 46 39 53 74 76 91 97 99 90 86 88 93 50 65 76 84 24 22 51 46 23 16 19
90 97 96 95 96 94 89 91 94 85 52 33 27 22 18 18 20 13 14 18 48 41 49 46 47 66 88 82 73 96 94 82 77 78 92 36 36 52 54 25 40 63 72 62 21
95 99 96 89 95 92 94 98 96 90 57 38 30 23 19 19 16 11 15 15 37 33 46 49 48 65 86 70 76 81 70 68 70 79 96 38 32 45 17 22 58 67 75 67 33
98 100 96 100 97 91 88 97 93 75 59 41 33 26 20 20 16 8 13 15 29 34 25 40 48 57 76 66 74 76 73 73 79 77 75 31 40 36 48 66 54 55 58 61 41
100 100 97 98 92 83 94 96 81 60 58 44 35 28 22 21 17 9 14 19 31 30 26 45 56 66 64 61 69 68 62 62 78 76 65 67 76 45 67 68 53 42 23 26 19
92 100 100 100 94 88 92 95 68 59 71 45 37 30 24 24 20 10 10 20 31 30 58 48 52 59 63 73 80 81 63 56 58 65 56 56 34 41 55 89 61 44 44 38 16
46 79 98 87 82 96 68 72 49 65 64 48 42 35 28 24 22 12 10 22 35 45 45 56 50 69 84 93 84 80 53 65 61 46 42 54 55 56 45 79 74 42 65 24 17
25 33 68 100 95 98 79 56 53 73 49 57 49 37 30 30 24 14 11 20 25 49 42 53 77 78 77 77 73 61 64 64 57 48 50 67 76 82 65 66 62 36 62 23 20
20 24 28 70 97 84 60 49 53 82 60 60 53 35 28 28 28 13 18 35 38 58 54 37 45 73 77 71 88 85 86 74 47 81 59 57 41 27 25 20 19 27 62 54 40
15 18 20 19 51 61 49 55 61 92 94 60 43 32 28 30 30 16 20 37 46 63 37 37 35 39 66 82 74 64 82 79 37 41 64 26 16 21 16 13 11 15 28 53 46
9 13 16 9 26 39 51 60 74 49 54 35 30 32 28 35 34 19 24 27 31 42 38 40 33 36 52 69 69 51 48 35 33 26 18 38 27 17 20 16 13 10 11 16 22
6 9 13 13 18 23 50 58 64 62 32 23 27 30 27 36 34 25 15 26 20 25 40 45 47 66 56 60 87 84 55 32 24 20 19 15 11 13 16 16 13 12 14 16 14
4 6 7 11 10 12 28 50 70 62 53 24 28 28 28 33 38 26 21 19 10 15 16 24 51 64 30 25 24 25 23 15 11 12 11 12 26 49 15 21 17 17 21 18 19
3 4 5 6 13 14 18 34 60 52 47 49 41 30 32 35 41 31 15 27 24 13 16 42 56 43 25 23 20 15 15 15 10 11 11 10 39 39 18 32 29 30 27 27 27
3 4 4 5 9 13 8 17 48 73 77 83 49 30 26 38 57 38 23 62 98 84 20 23 17 14 13 15 14 10 9 10 11 9 12 12 26 47 30 30 31 33 32 28 20

GFSSW_500_rhum_036.txt.gz
RH
22 24 26 27 28 26 24 26 33 36 38 37 36 31 21 15 12 9 9 12 16 28 32 28 20 26 27 26 23 24 98 91 88 90 87 80 77 86 93 88 84 77 73 76 94
22 23 25 29 30 28 28 28 37 39 41 42 38 33 22 16 12 9 10 14 17 30 39 29 23 24 32 32 27 34 100 97 94 100 92 88 92 92 94 83 74 68 66 72 75
29 29 30 32 32 30 30 30 38 42 45 45 40 34 22 16 14 10 10 14 17 29 31 31 30 30 29 36 43 76 99 95 96 93 95 83 84 96 86 73 78 69 74 73 60
36 34 34 33 34 35 31 33 39 46 49 47 43 34 21 17 15 10 12 14 15 23 29 35 37 50 33 36 53 96 100 100 99 94 90 98 97 96 74 68 76 87 78 60 71
44 43 41 45 37 36 33 37 43 48 52 51 47 34 21 20 14 10 13 14 16 20 28 39 46 68 53 48 93 97 96 88 87 99 90 80 97 94 75 67 70 65 66 50 52
48 48 50 44 43 41 43 45 48 51 56 54 51 35 22 22 14 10 14 14 21 28 35 37 57 75 87 61 96 71 94 89 89 99 98 90 80 88 83 96 83 81 86 80 93
84 66 64 63 58 57 54 50 53 57 58 56 66 36 21 20 15 10 14 16 21 33 46 54 55 69 91 85 73 81 79 88 77 95 95 83 69 81 90 82 58 58 85 91 65
91 95 95 81 71 67 63 63 56 60 62 56 64 36 23 21 16 11 12 22 23 24 39 52 54 56 61 88 83 64 94 90 87 67 65 100 59 83 73 39 28 25 55 53 27
93 97 94 96 95 84 82 73 69 64 64 59 68 33 23 22 17 11 10 23 28 23 37 50 54 56 54 80 100 73 83 81 100 70 68 92 52 70 47 35 24 23 18 21 21
97 98 94 93 93 91 92 92 88 70 68 61 67 35 27 23 17 12 11 22 27 23 34 36 51 48 54 80 98 88 70 68 78 81 83 95 72 35 79 48 36 28 20 19 23
92 92 97 96 87 83 96 96 96 88 72 72 66 35 29 24 18 14 15 19 24 30 39 41 44 53 52 68 81 87 74 58 58 78 72 100 74 26 50 63 56 39 22 20 18
97 96 91 93 96 97 88 97 98 97 91 86 62 31 24 24 19 15 15 17 22 45 49 44 48 60 58 59 74 83 71 70 63 70 80 90 89 40 26 47 51 60 34 24 21
100 97 93 90 98 97 96 96 99 94 94 96 60 36 27 24 20 17 15 16 21 52 50 35 48 48 52 61 68 72 61 85 88 64 63 80 82 71 20 41 67 61 44 26 26
99 100 90 90 88 92 94 94 92 94 88 88 74 42 29 26 20 17 14 12 23 46 47 33 42 46 64 67 88 90 66 76 65 68 54 41 56 69 36 26 63 68 82 84 23
100 100 92 84 90 86 89 92 95 93 85 94 68 46 34 29 22 19 15 12 20 40 44 39 52 42 51 73 75 73 61 55 58 60 52 33 32 40 40 33 37 60 80 86 34
68 95 98 97 99 92 85 90 94 95 76 81 66 53 37 30 24 19 15 9 16 27 33 44 47 47 53 61 66 56 59 60 56 58 59 54 35 35 28 76 83 62 62 75 49
56 73 92 89 76 86 90 86 87 74 84 73 56 51 37 31 24 20 18 8 19 24 32 31 36 53 59 57 58 59 65 60 63 70 54 63 40 54 77 50 71 47 35 60 48
37 68 80 86 57 87 90 87 74 61 83 66 61 51 36 33 26 21 20 8 17 24 36 31 37 49 65 62 60 55 56 63 67 65 61 64 55 48 45 44 52 56 38 35 37
25 38 66 86 38 85 100 86 55 59 84 80 59 56 45 37 29 22 21 11 16 23 32 37 50 60 71 65 63 66 71 74 69 58 58 54 40 36 44 66 66 69 60 36 35
23 24 40 56 22 87 94 67 59 72 82 86 70 58 46 39 34 26 22 16 16 25 29 39 58 70 70 68 68 68 74 71 53 44 41 40 40 51 74 64 55 67 63 41 39
15 21 33 52 14 66 60 54 61 73 93 92 75 70 54 44 39 27 25 17 16 28 36 54 45 72 70 66 82 84 68 62 60 56 53 37 38 60 51 43 42 51 56 50 68
12 18 22 38 21 46 34 53 62 67 74 92 80 68 52 48 41 29 28 19 20 26 38 45 58 57 61 99 84 64 56 68 67 58 69 63 28 45 30 22 18 20 18 27 70
10 14 15 25 27 23 20 46 57 77 69 96 78 68 52 54 45 32 31 21 18 28 30 45 44 43 51 56 57 53 67 57 54 64 53 18 13 21 52 32 19 17 15 13 27
6 10 11 14 21 24 20 30 50 75 85 91 71 59 54 48 39 37 33 24 21 30 41 55 40 41 43 57 69 42 53 52 38 26 21 16 16 22 19 20 18 12 12 15 15
5 7 11 14 16 13 12 16 47 63 93 90 94 78 62 42 37 39 37 29 23 27 31 33 31 44 58 98 73 55 61 74 55 31 22 13 9 11 13 13 54 29 13 26 26
3 5 8 10 14 15 10 8 21 61 89 86 80 82 51 39 35 49 47 41 23 28 29 20 18 27 55 71 48 18 20 21 18 12 8 8 8 12 10 18 46 30 23 29 33
3 4 6 8 11 13 7 9 14 39 79 96 59 26 30 37 46 70 48 51 31 45 30 16 13 46 67 70 39 12 12 12 10 10 9 8 9 10 9 13 54 55 34 30 32

GFSSW_500_rhum_042.txt.gz
RH
25 23 20 18 18 18 20 20 22 23 24 31 29 30 32 32 40 41 42 33 22 14 9 14 16 25 13 19 22 24 67 94 82 88 80 96 99 89 78 70 58 47 37 36 44
29 31 29 27 27 26 24 23 23 22 28 32 31 33 32 35 43 44 45 35 22 14 10 14 18 30 14 21 24 39 94 82 85 83 89 94 79 97 85 78 60 47 55 45 43
35 31 32 34 34 32 32 31 30 30 32 32 36 36 36 42 46 46 48 41 24 12 12 17 17 34 27 24 27 48 85 83 83 97 99 90 83 75 82 95 86 74 70 60 59
54 40 38 37 36 38 37 34 35 35 36 44 40 39 46 50 50 50 54 48 26 12 12 19 20 42 39 31 30 72 76 80 81 96 95 96 96 81 95 80 75 68 71 73 73
74 66 57 47 45 43 40 40 37 40 45 47 49 51 48 56 54 54 58 48 26 12 13 19 22 40 44 35 37 77 75 71 81 87 92 99 96 85 92 91 75 75 73 82 78
72 78 74 70 65 60 52 46 42 45 48 48 61 76 68 60 58 55 60 55 25 12 13 18 21 34 44 36 48 67 78 77 68 77 90 92 89 81 86 81 89 87 80 84 94
60 78 82 82 81 75 77 70 62 51 51 60 74 82 74 64 62 58 62 57 25 13 13 15 19 27 39 32 55 76 82 98 78 90 88 87 89 78 79 63 94 96 90 98 94
64 61 68 82 79 83 90 86 82 81 82 63 69 81 81 67 69 62 63 57 26 14 12 14 21 22 37 33 61 79 92 99 96 91 85 71 86 80 77 61 51 44 97 99 96
66 67 63 66 78 83 80 92 96 95 96 93 76 83 92 89 72 65 66 56 27 15 13 15 24 23 33 40 50 76 100 96 95 95 99 75 77 88 47 27 26 47 31 67 69
61 63 64 62 65 81 79 74 83 91 96 97 91 88 85 95 92 67 67 60 28 16 12 17 27 27 37 42 75 100 100 97 93 96 95 78 74 65 51 32 28 29 30 23 32
62 64 64 61 69 72 80 83 70 75 84 99 98 89 85 98 94 70 69 60 28 18 12 19 28 32 31 41 36 34 92 100 90 69 94 87 100 83 63 65 34 29 32 31 30
37 48 61 62 58 70 74 74 66 69 83 84 91 91 87 94 88 74 74 70 27 19 12 20 29 40 36 45 38 47 56 74 69 64 90 93 82 94 60 80 48 36 27 29 28
18 27 34 53 58 64 68 65 75 57 68 85 76 85 90 85 96 79 82 56 27 19 12 16 26 40 46 30 42 52 50 54 50 55 88 100 94 93 58 47 55 48 36 30 26
10 14 23 29 37 51 64 65 72 68 54 66 75 72 83 80 86 94 90 46 28 21 12 14 25 34 44 45 50 53 56 56 64 58 100 91 100 97 62 54 51 52 29 33 33
9 10 12 20 26 50 59 73 80 89 60 60 61 63 74 76 94 93 90 42 28 22 12 20 28 33 45 43 48 58 71 57 60 69 63 71 78 99 80 42 61 64 65 35 22
5 9 10 12 21 40 48 71 80 86 54 57 63 62 69 77 84 94 63 39 29 22 12 10 27 34 43 34 39 54 61 71 68 68 65 69 74 90 58 50 46 73 89 70 66
2 4 9 11 20 37 52 77 85 51 50 57 64 64 76 82 93 97 61 38 30 22 12 12 26 33 32 38 36 47 54 93 100 75 82 60 56 82 56 39 47 70 86 75 70
2 2 6 9 16 30 46 79 51 24 39 63 62 63 75 90 91 85 64 43 30 22 15 11 16 32 39 40 47 45 45 90 96 80 99 60 56 83 52 49 40 53 70 78 83
3 3 5 7 12 24 40 45 16 27 42 63 70 63 72 85 92 92 62 41 29 22 15 13 15 25 28 45 51 57 45 56 70 68 70 65 58 54 48 48 33 40 41 67 65
6 4 5 7 9 16 34 16 18 25 36 70 70 68 79 96 96 98 60 41 29 23 17 16 21 24 32 44 55 62 59 61 59 62 66 93 63 90 49 40 37 37 47 61 69
28 8 4 7 8 15 23 8 16 20 42 68 72 72 90 98 96 93 52 39 31 25 19 15 19 26 29 33 49 58 62 60 64 64 83 77 83 52 69 65 55 44 62 63 78
49 20 5 6 12 9 10 7 15 19 42 64 68 78 99 100 98 94 44 44 38 32 24 18 19 22 35 43 46 56 65 72 70 76 72 73 56 54 55 69 68 52 51 42 47
86 38 22 9 9 10 8 10 13 20 42 58 69 76 100 98 98 97 82 51 43 37 27 21 22 28 33 37 43 51 61 76 71 72 66 56 50 50 41 21 27 39 28 29 24
95 96 49 22 6 8 9 13 15 17 38 54 70 81 94 97 100 96 60 52 46 39 29 29 38 38 27 39 63 56 67 77 83 66 61 52 62 57 36 21 20 18 24 26 23
92 98 67 23 7 6 9 12 16 16 30 41 64 78 95 100 100 100 77 68 58 40 29 25 29 33 26 44 65 58 67 64 62 45 42 39 46 58 48 26 18 11 10 11 10
98 69 73 42 22 5 7 10 15 17 31 35 53 76 100 100 100 100 100 99 90 48 30 26 28 27 28 36 50 42 40 50 51 41 38 41 22 21 18 12 10 10 10 10 9
95 76 74 52 26 9 6 9 14 18 24 38 40 54 98 97 100 99 96 97 95 57 33 30 28 34 28 32 47 20 21 40 43 50 32 12 13 15 25 21 15 11 11 10 10

GFSSW_500_rhum_045.txt.gz
RH
26 24 26 25 23 19 16 16 16 19 21 22 22 24 30 30 32 31 38 42 46 46 30 15 10 12 15 14 12 15 49 96 93 90 100 83 93 95 64 38 31 32 36 59 58
59 49 34 28 29 28 27 25 24 24 23 23 24 29 32 36 34 37 43 46 50 51 27 13 11 14 13 20 13 17 94 99 92 98 98 82 85 76 76 91 84 50 37 33 39
64 62 65 41 31 31 33 32 31 30 29 29 30 32 36 39 38 48 48 51 55 52 27 13 11 16 14 28 12 59 95 99 100 87 85 81 84 55 85 94 100 79 68 41 47
67 62 61 68 44 38 37 37 38 39 36 36 35 37 47 44 53 52 56 56 58 52 26 12 11 17 27 50 21 19 100 97 98 67 71 69 86 79 80 92 85 82 72 70 64
64 69 64 64 71 57 47 42 43 44 43 42 42 41 46 52 60 59 61 60 60 57 23 13 11 17 32 38 22 22 52 41 56 69 74 96 76 61 68 92 83 83 73 75 81
61 65 62 67 67 71 75 72 63 52 51 48 47 44 51 64 65 65 65 63 62 56 22 13 10 18 20 28 16 41 17 58 30 50 69 77 82 66 63 68 70 80 76 85 95
63 65 66 66 69 69 72 87 81 73 72 88 62 53 62 72 67 71 69 68 64 58 24 14 11 19 16 29 15 17 30 89 80 90 79 59 89 53 57 66 60 83 94 96 95
63 69 71 67 62 71 67 74 79 91 88 86 88 82 77 72 70 76 78 71 66 62 25 14 12 18 16 28 14 26 89 96 96 54 70 51 97 64 59 57 55 41 88 96 94
67 66 72 69 67 69 68 65 73 76 83 84 85 91 96 86 75 90 95 85 69 62 27 14 13 18 19 29 72 54 100 93 87 69 70 90 96 49 63 42 22 42 34 92 83
72 72 69 64 62 67 68 62 64 70 77 73 74 82 89 94 86 91 97 92 72 65 29 14 15 21 23 71 94 96 98 90 100 96 59 72 99 82 62 64 23 26 30 29 72
44 47 57 67 64 64 72 67 62 61 70 77 66 70 71 97 92 94 98 93 74 73 32 14 15 21 97 97 88 100 100 86 90 87 66 77 100 95 69 56 47 29 26 28 33
15 22 30 38 41 54 63 68 66 66 61 61 54 60 74 90 90 95 98 83 74 77 31 16 16 27 37 24 18 38 99 95 100 66 50 83 96 95 95 45 70 33 21 28 28
13 13 13 17 20 34 45 58 72 65 57 61 55 52 78 72 87 89 97 86 79 83 28 17 58 25 36 36 30 40 99 97 91 100 46 45 72 100 92 31 49 54 30 21 24
9 11 13 12 13 17 25 34 55 68 61 58 61 51 60 71 62 88 93 98 79 71 29 19 13 26 32 46 44 100 82 66 57 45 100 95 98 92 100 60 37 50 46 27 23
3 4 5 9 12 12 15 32 40 51 58 55 51 57 52 56 69 86 91 96 94 66 31 24 15 26 27 48 50 94 56 42 47 100 100 95 83 89 75 94 99 43 43 49 24
2 2 2 3 6 10 10 18 34 47 29 44 49 50 58 55 61 72 81 97 98 55 32 21 12 20 28 34 42 42 53 53 50 95 98 91 93 95 100 93 100 98 65 64 56
2 2 2 2 3 6 10 12 31 25 24 28 41 60 53 51 56 69 75 92 84 52 31 23 11 21 24 29 40 48 46 85 99 99 72 96 61 100 92 84 42 64 100 76 48
3 2 2 2 3 4 7 11 17 12 18 18 27 45 54 54 55 66 84 90 80 42 34 25 17 17 24 27 44 48 70 91 96 100 100 85 48 87 78 46 50 44 49 58 66
28 7 3 2 3 5 7 15 6 10 20 21 26 48 51 56 59 69 72 85 79 42 33 27 32 29 25 35 46 94 50 96 81 75 76 97 83 70 49 49 53 46 39 41 64
51 40 13 4 4 7 8 7 3 8 20 18 29 36 66 67 64 61 73 83 84 49 32 30 69 29 16 31 42 73 80 64 58 90 79 91 95 98 90 48 40 41 40 44 48
37 41 43 21 12 9 8 4 3 7 14 22 38 53 73 76 75 73 94 88 96 58 32 28 23 50 18 19 33 49 46 55 100 100 99 97 97 95 88 63 52 50 51 46 67
48 39 37 58 32 16 7 3 3 8 12 18 32 62 77 82 90 95 98 99 99 64 33 27 24 63 25 23 52 98 64 79 98 99 96 71 55 96 74 52 51 54 47 48 54
52 53 46 69 58 23 8 4 6 10 14 18 23 49 72 83 100 100 100 100 97 82 38 36 26 34 100 53 61 70 90 99 100 99 93 83 56 99 61 52 40 29 21 20 41
76 68 69 52 43 49 23 5 6 9 19 23 28 52 81 84 99 99 100 96 99 80 50 37 31 26 40 67 85 44 53 88 100 91 67 66 100 99 98 86 85 96 95 17 16
100 70 64 44 45 34 28 12 4 7 14 25 38 42 68 86 100 100 100 96 91 95 78 45 34 28 28 99 100 100 94 100 100 100 99 80 100 100 99 95 90 83 54 16 11
100 87 72 47 61 57 58 25 7 5 8 23 24 44 63 71 99 100 96 92 97 96 94 55 40 29 36 99 97 95 94 97 98 98 100 100 93 100 91 52 46 47 20 11 8
100 96 100 90 66 48 57 38 15 5 6 11 27 57 100 100 100 96 100 99 95 86 95 61 43 38 32 86 100 91 25 74 92 92 97 91 50 100 85 38 8 8 10 11 11

GFSSW_500_rhum_048.txt.gz
RH
33 30 24 22 23 23 22 22 21 19 16 16 18 20 21 22 26 32 37 39 45 46 50 54 29 18 7 7 8 17 68 94 88 99 79 85 100 99 94 56 44 65 79 78 79
53 46 47 49 46 37 32 28 28 27 25 24 23 23 23 25 31 37 42 46 50 52 54 54 28 17 6 6 11 19 83 95 99 79 51 23 42 30 80 82 53 95 95 87 43
69 59 61 67 70 69 57 44 31 33 32 30 29 28 29 32 34 43 50 50 54 56 58 48 27 14 7 17 25 47 99 96 65 49 30 36 53 61 76 66 95 89 96 100 55
68 68 62 66 68 69 72 65 46 36 36 36 35 39 46 37 39 45 54 56 56 60 61 47 26 12 9 56 99 40 22 41 33 19 45 50 50 42 41 49 52 68 72 69 57
64 67 70 68 66 68 69 70 67 50 42 42 40 41 46 45 45 51 57 59 64 64 62 48 23 12 10 85 77 72 46 18 29 26 48 63 89 43 69 41 52 58 61 58 70
70 69 69 66 66 66 67 67 73 73 68 64 55 46 67 46 49 50 59 70 68 67 63 54 21 11 12 15 15 62 21 11 64 44 77 59 65 69 75 43 41 64 82 66 57
70 67 63 63 67 67 68 74 69 70 73 76 71 73 72 66 53 63 73 75 76 71 66 55 21 10 11 12 16 13 9 14 97 49 93 74 82 90 50 33 44 57 59 82 68
83 73 70 66 69 65 71 72 71 66 68 55 72 73 76 88 86 80 81 80 83 79 68 56 22 11 11 11 10 14 23 61 98 74 92 61 97 97 52 54 39 40 42 72 73
89 84 77 71 67 66 73 69 71 64 65 56 52 57 64 84 86 96 97 81 88 96 69 55 22 12 11 11 29 38 62 81 71 77 77 63 83 96 75 58 53 30 35 42 78
92 72 77 75 68 69 73 74 73 67 58 60 52 53 54 64 76 88 94 81 90 96 68 51 23 12 12 22 69 100 100 99 74 81 69 63 93 93 97 66 59 45 40 22 61
80 82 62 80 59 71 77 77 68 62 60 62 51 55 56 52 63 69 94 84 86 98 70 62 25 12 13 89 71 100 92 94 98 58 66 47 95 99 88 79 39 38 19 22 25
29 41 38 68 35 42 54 62 66 64 57 60 58 54 55 53 54 70 85 92 88 97 68 70 22 16 15 84 36 48 60 98 100 96 53 44 68 94 68 51 26 24 32 22 39
18 18 18 15 33 23 23 36 40 44 43 62 59 55 61 52 52 60 73 90 91 94 71 76 38 50 19 36 30 16 56 99 65 85 43 41 48 93 98 92 52 30 25 29 17
14 19 18 16 14 17 15 12 19 23 30 33 55 47 55 59 47 55 72 92 83 97 75 71 25 18 19 31 37 58 88 98 81 92 78 66 84 75 88 71 55 42 24 30 20
4 3 6 7 8 9 14 15 12 15 24 26 30 35 59 50 60 60 74 89 83 98 94 62 29 15 16 27 38 62 74 93 32 45 83 71 63 100 82 77 98 65 61 39 44
2 2 2 2 2 3 5 9 11 12 18 24 23 26 46 53 56 68 63 66 82 93 93 68 36 19 16 22 34 48 39 52 44 35 40 76 100 94 90 87 96 94 85 55 46
2 2 2 2 2 2 2 3 6 10 18 19 21 23 30 46 55 62 56 58 60 70 79 95 33 30 13 20 24 36 39 53 85 73 51 70 74 98 74 92 98 92 74 69 56
3 2 2 2 2 2 2 3 3 4 6 14 16 19 21 27 56 63 56 57 63 85 100 92 37 23 16 13 22 31 35 66 94 89 94 90 74 96 55 78 62 54 54 58 41
19 8 4 3 4 2 2 2 2 2 4 8 13 14 18 26 33 58 59 55 78 97 99 96 39 54 28 17 24 31 31 49 97 92 91 58 86 73 70 57 61 43 42 43 55
45 41 26 18 13 8 4 2 1 2 3 11 13 20 21 32 36 46 59 66 77 96 98 94 98 89 99 29 22 23 56 61 80 77 77 95 75 97 87 96 71 48 41 40 34
33 31 33 46 35 25 7 2 1 2 3 7 6 18 22 34 53 60 57 73 90 100 97 87 92 97 100 50 24 30 29 62 83 91 79 47 96 79 93 100 74 56 39 42 48
50 30 33 40 45 45 32 10 2 2 3 10 11 11 17 45 67 68 71 80 100 100 95 86 91 90 100 73 37 23 41 54 67 79 98 63 80 100 98 91 80 50 44 33 34
70 55 51 49 35 22 22 31 15 3 3 7 15 18 22 77 93 88 90 100 97 99 95 96 84 96 98 82 94 22 62 34 44 66 76 83 84 98 79 68 72 45 48 38 31
95 74 61 47 40 35 28 14 22 14 4 3 11 21 34 65 68 90 94 100 96 89 100 98 90 68 49 56 82 55 65 88 88 94 89 90 50 61 81 78 96 76 48 35 27
100 62 42 34 30 33 41 36 22 34 24 8 5 17 30 78 99 98 100 100 100 91 98 96 80 68 59 54 98 69 48 84 77 89 84 58 68 68 90 98 49 57 81 61 30
100 77 46 42 52 47 51 48 27 24 42 22 6 5 34 98 100 100 100 98 97 99 98 99 92 77 54 38 68 99 93 60 65 62 74 80 95 88 95 93 88 82 46 21 35
93 68 68 49 51 59 40 30 33 33 39 42 17 6 8 27 70 93 95 99 91 100 99 98 95 79 53 42 61 79 96 84 92 100 100 100 96 87 95 91 80 53 21 9 7

GFSSW_500_rhum_051.txt.gz
RH
52 47 38 31 28 23 20 20 19 20 21 21 22 20 19 19 21 25 24 30 38 44 44 49 55 47 21 9 6 6 24 51 92 100 97 87 91 48 35 53 76 96 46 62 95
64 68 70 56 42 36 32 36 41 39 31 28 25 25 25 24 24 28 30 34 45 53 51 55 57 47 20 8 6 8 21 67 96 100 96 83 95 43 54 72 73 65 86 81 90
72 73 72 77 64 55 58 63 62 59 51 40 30 28 28 30 29 32 36 38 49 61 53 58 59 49 21 9 7 10 18 44 96 100 34 41 47 58 89 70 56 64 71 55 82
68 69 68 72 76 69 67 66 62 58 63 56 41 33 32 33 36 43 43 41 50 56 58 63 60 48 20 9 6 14 21 31 61 61 31 40 47 64 87 99 51 65 67 62 74
73 69 72 71 75 75 71 73 70 63 59 55 54 45 42 41 42 49 51 44 46 57 66 65 61 54 18 9 6 18 57 22 15 36 34 46 63 100 86 94 57 61 51 70 59
80 71 73 76 71 74 71 68 65 62 61 54 50 57 60 58 51 62 55 48 55 68 71 68 64 56 18 9 6 10 17 11 35 64 51 45 69 87 91 74 44 37 36 52 68
83 77 86 84 76 71 74 70 68 64 61 54 49 49 60 77 66 69 72 60 63 76 74 75 68 57 22 10 6 8 8 9 61 97 64 75 95 88 72 56 43 27 34 38 62
96 97 87 91 92 80 77 71 71 70 63 55 49 46 54 83 63 72 75 90 92 85 72 78 90 53 21 10 7 8 16 52 60 71 72 89 88 84 95 77 54 38 34 48 57
96 96 94 87 89 90 86 84 76 71 63 56 52 46 49 63 60 59 67 87 91 79 76 89 71 50 22 10 8 14 53 65 98 90 91 85 50 61 90 73 72 43 23 42 73
96 96 97 97 95 89 90 83 72 72 63 60 53 53 48 48 64 68 67 74 78 77 74 95 65 53 20 11 20 42 63 93 97 100 95 88 53 76 66 51 32 32 20 30 34
96 97 95 96 97 90 80 86 79 62 58 68 54 57 54 48 48 62 62 56 68 71 84 84 68 42 21 12 12 24 77 100 99 100 100 74 53 47 58 84 43 23 38 32 33
96 93 57 55 84 96 62 74 73 66 63 67 58 56 59 49 50 63 59 53 65 74 78 75 67 44 19 12 8 29 33 51 98 93 81 85 64 34 68 85 74 25 26 29 27
93 70 40 17 19 32 80 86 70 60 52 60 62 55 60 46 57 62 55 56 61 75 76 90 62 47 27 11 16 21 12 49 87 96 100 89 64 54 72 77 94 46 26 30 20
46 40 68 67 12 14 16 24 63 70 51 40 43 41 56 49 47 70 58 58 65 72 87 71 72 62 27 13 23 34 33 43 49 66 88 87 66 77 91 62 71 55 51 36 17
9 52 54 8 34 5 11 13 16 18 45 42 31 29 36 38 59 66 78 64 72 82 86 83 92 72 25 15 25 35 35 69 64 47 59 80 56 100 86 77 72 80 33 43 46
2 3 18 16 2 3 6 9 11 15 31 32 33 29 27 28 41 61 64 62 70 71 77 77 84 84 29 16 19 35 33 49 41 30 18 31 90 85 98 94 66 47 54 27 30
2 2 2 2 2 2 2 3 4 9 14 18 24 22 23 24 34 48 60 61 58 56 53 68 85 88 71 18 19 30 39 37 39 33 54 80 88 65 88 58 67 35 27 24 28
2 2 2 2 2 2 2 2 3 9 6 8 12 15 16 19 26 38 48 50 56 62 69 70 79 90 71 18 25 21 34 40 49 76 54 48 62 80 63 79 78 81 43 29 26
10 4 2 5 4 2 2 2 3 3 3 4 7 7 8 13 19 23 27 43 64 70 69 76 69 96 72 33 31 26 33 50 53 76 68 83 98 94 81 63 90 79 58 54 36
47 34 14 18 12 8 4 2 2 2 2 2 3 8 10 15 13 21 36 35 59 67 75 84 80 97 56 46 29 25 33 80 69 56 93 93 85 95 94 93 75 86 68 51 38
70 51 44 63 32 24 4 2 2 2 2 2 4 4 7 20 10 20 25 58 52 57 89 93 93 100 76 63 42 34 32 47 94 69 70 77 82 67 87 84 96 64 56 43 37
83 57 52 67 66 39 16 8 6 2 3 3 4 12 8 11 15 14 25 22 77 92 72 89 98 98 80 73 61 52 53 38 57 80 86 48 45 76 80 90 70 83 63 46 32
98 88 80 82 40 27 22 18 21 16 11 4 3 7 39 30 40 22 33 56 65 98 76 96 82 98 93 78 79 91 76 48 48 87 100 89 52 81 86 100 92 78 66 54 32
100 92 78 57 41 21 24 21 19 20 30 24 6 4 22 58 54 48 52 69 91 92 91 100 83 82 74 85 98 85 49 43 31 75 100 71 22 96 90 97 94 73 90 78 61
96 69 60 43 28 40 33 26 26 20 16 30 36 12 4 32 75 60 60 66 98 71 100 99 68 89 92 96 91 96 72 75 40 32 47 55 64 69 70 92 86 91 82 53 54
94 64 57 56 57 53 48 29 35 36 34 32 26 40 15 5 8 16 56 83 99 95 100 98 83 88 95 90 95 93 81 81 81 65 81 93 96 66 56 86 74 62 95 76 94
89 72 68 64 73 69 34 25 27 52 45 45 38 42 48 17 6 12 41 88 67 94 78 81 75 92 85 100 100 80 71 94 75 60 87 95 57 73 84 82 100 83 74 54 41

GFSSW_500_rhum_054.txt.gz
RH
30 29 30 31 29 26 22 21 21 18 16 18 18 20 21 21 21 22 22 22 27 30 36 46 52 55 58 24 10 7 13 23 50 47 60 63 94 40 38 56 64 55 63 89 86
49 43 52 48 48 45 38 32 29 23 21 27 33 36 33 26 24 25 25 25 30 35 37 51 53 58 58 23 11 9 11 26 56 52 64 54 47 35 43 52 60 53 55 67 66
55 61 62 62 62 62 60 53 42 36 41 51 48 49 45 31 27 29 30 32 40 43 40 47 56 62 59 23 12 10 9 18 49 59 82 40 32 42 49 54 82 50 40 43 43
81 87 74 75 72 69 67 63 59 53 60 54 51 47 48 44 36 36 37 37 45 47 40 46 62 63 60 28 11 7 9 9 19 59 40 39 36 54 66 69 58 50 51 55 54
92 88 85 80 73 68 65 63 64 61 63 63 58 48 45 46 45 44 43 42 56 53 47 52 69 63 62 34 12 7 6 8 24 24 51 52 60 71 85 66 57 38 39 43 52
94 90 94 86 81 72 70 65 60 63 63 62 59 52 44 55 56 53 54 54 62 49 48 68 71 67 68 28 13 7 6 10 17 64 66 54 55 69 87 62 59 39 41 36 46
97 93 97 96 95 83 75 75 66 59 65 56 49 47 46 76 56 54 68 66 76 66 66 75 70 65 76 38 14 6 6 9 70 68 46 55 60 58 94 68 83 40 32 38 45
97 97 96 95 97 97 91 88 76 59 61 56 53 50 50 55 54 56 56 64 73 85 90 85 79 77 87 40 13 7 9 24 65 48 56 90 78 60 70 70 45 26 29 33 57
97 97 97 97 96 96 96 96 89 67 59 52 53 56 60 60 56 49 47 74 56 75 89 82 71 82 63 29 12 9 14 62 69 51 64 92 80 70 65 36 31 26 35 37 64
96 96 98 97 99 97 97 97 89 78 62 53 53 59 66 62 53 53 56 62 53 58 72 80 74 83 53 27 16 15 27 50 41 61 85 93 60 48 71 84 34 32 33 35 46
98 100 96 98 96 97 97 99 85 75 60 58 52 58 63 65 55 52 52 52 53 42 64 88 70 85 46 30 15 12 16 28 62 95 84 91 67 54 60 83 50 20 28 21 40
96 98 99 97 97 96 100 98 82 66 65 68 69 64 71 67 54 59 60 54 53 58 54 76 91 71 60 36 16 11 13 34 57 99 100 91 89 53 40 75 81 25 28 21 16
44 93 93 98 98 92 95 96 78 68 66 72 70 66 79 56 60 62 51 59 50 55 45 68 97 74 66 47 19 15 12 19 75 99 94 63 84 75 34 87 78 64 24 23 16
16 8 90 73 81 100 75 66 84 67 66 62 60 52 62 64 52 69 58 59 53 56 58 52 97 89 78 52 28 13 11 17 50 72 80 73 64 70 49 62 82 52 42 24 16
3 9 3 48 98 88 95 88 44 64 43 47 54 53 43 46 54 69 68 65 67 68 56 61 99 87 82 62 39 18 18 26 32 26 38 52 56 57 53 73 80 85 79 37 24
3 2 3 3 35 87 57 74 64 28 41 29 34 40 42 34 36 49 57 60 71 65 53 61 87 81 76 69 30 16 18 24 34 32 27 36 42 44 50 98 66 56 88 77 35
2 2 2 2 3 7 86 47 32 68 28 22 25 30 33 32 31 30 39 46 55 58 50 61 68 88 86 72 46 16 13 19 30 36 44 36 22 30 79 64 48 40 32 37 37
2 2 2 2 2 2 3 38 67 37 46 14 14 16 19 24 23 27 29 30 43 59 65 60 63 76 76 91 68 24 17 14 21 33 45 61 39 51 63 66 45 42 38 34 33
3 2 2 4 2 2 2 2 15 35 22 6 7 7 7 12 19 21 22 25 41 58 59 68 60 76 82 100 97 47 20 19 28 25 42 72 69 68 69 76 64 53 50 40 38
4 4 9 5 3 3 2 2 3 7 7 5 5 8 6 6 8 16 20 22 23 30 61 74 74 91 99 100 91 65 50 40 30 21 24 71 99 89 81 77 79 76 41 65 30
23 11 31 28 13 5 2 2 2 2 3 4 3 5 23 19 12 6 9 19 31 50 69 74 78 90 100 84 90 64 34 30 41 27 20 33 79 98 89 59 51 69 80 69 49
96 46 67 70 53 12 2 3 4 6 6 4 3 3 15 27 13 10 9 15 30 29 31 63 75 76 74 95 85 57 41 42 41 24 20 24 44 88 80 87 76 75 76 63 55
100 83 86 100 57 19 21 17 11 9 10 7 4 3 5 29 30 16 14 14 29 25 33 57 39 61 95 99 100 79 53 42 66 33 24 26 16 53 91 70 52 49 78 77 56
99 79 73 71 54 45 45 37 33 32 31 22 16 6 6 8 39 39 60 23 18 36 34 59 32 40 54 90 96 93 75 54 86 50 37 26 16 76 84 86 79 94 87 99 74
95 58 57 51 44 54 51 35 29 26 30 38 36 25 11 6 20 5 59 66 72 86 86 84 34 38 56 93 99 100 89 80 74 70 53 32 24 33 87 51 66 92 96 87 69
81 56 46 54 58 79 60 26 26 29 27 34 23 40 38 12 5 12 49 90 100 98 100 100 71 60 55 88 100 98 87 87 96 98 54 71 29 24 58 79 90 86 89 71 56
85 77 68 58 59 54 33 46 54 50 29 26 30 40 32 33 19 14 72 50 80 96 98 98 69 81 38 80 100 90 68 83 97 82 73 61 50 61 43 97 85 60 52 46 92

GFSSW_500_rhum_057.txt.gz
RH
78 64 43 32 28 28 27 26 24 22 18 17 18 16 14 16 18 21 22 22 23 23 24 33 36 54 55 52 54 24 10 8 14 14 15 10 12 18 33 45 51 56 46 55 57
96 90 67 42 31 30 28 29 27 26 22 21 21 17 17 23 29 30 25 26 26 26 30 40 41 52 55 58 55 26 11 10 9 13 9 14 12 29 44 49 64 66 43 50 53
99 97 92 67 41 36 34 36 40 33 33 29 27 22 24 40 45 36 29 31 31 32 41 44 42 50 58 61 57 31 13 9 10 9 8 12 19 56 68 72 80 63 44 45 49
85 99 96 93 65 53 52 44 50 44 46 43 35 30 39 45 49 42 36 35 37 38 42 51 46 51 65 65 58 32 14 10 12 9 11 23 35 55 71 64 65 48 38 40 41
85 87 98 96 93 80 71 64 66 65 56 52 44 44 43 44 64 45 43 41 42 43 45 58 53 59 66 70 64 41 17 8 10 12 26 44 47 68 61 72 67 62 34 33 37
92 90 96 98 95 97 93 84 76 70 61 55 50 47 50 52 62 46 48 49 52 51 54 62 52 58 66 73 69 51 18 9 8 17 46 53 44 52 59 57 69 47 30 33 39
70 92 79 95 97 95 97 94 84 73 62 57 53 48 53 67 56 58 60 66 64 65 73 75 65 71 73 78 75 63 17 9 8 32 55 45 62 48 59 73 39 25 34 35 44
71 71 86 96 97 96 96 97 94 82 72 61 54 50 52 55 56 58 71 68 59 74 72 76 84 94 89 88 94 64 15 10 19 40 52 68 55 46 66 36 31 26 37 40 42
89 85 90 93 96 98 95 96 96 86 76 67 58 52 58 56 56 49 59 77 77 68 72 59 77 93 85 88 76 23 16 16 26 25 32 65 69 38 72 48 29 36 35 45 50
74 98 94 96 92 96 97 97 90 87 90 67 60 64 63 59 60 58 58 77 83 66 61 49 62 78 87 92 44 26 17 18 42 43 49 61 61 40 56 65 53 31 28 37 44
81 46 100 96 97 95 97 97 91 85 84 78 71 71 73 56 53 57 62 62 67 52 51 72 43 84 98 90 55 39 18 17 46 48 38 48 39 54 44 60 53 24 22 18 40
18 25 61 99 99 97 97 91 83 76 73 77 87 77 84 64 54 59 63 68 63 54 66 59 44 98 86 68 62 41 20 15 38 67 48 38 63 49 40 65 65 36 24 16 28
3 27 6 89 97 98 97 86 94 75 69 96 92 82 94 68 59 63 62 72 66 68 56 50 77 91 75 70 64 50 21 18 21 36 38 32 46 43 34 78 59 31 20 22 16
3 3 6 7 91 100 95 94 90 98 78 81 86 81 84 74 57 76 62 69 66 64 61 56 62 84 88 81 67 54 26 16 20 12 16 31 23 46 36 60 65 40 25 21 18
3 3 3 4 23 66 98 100 94 98 68 73 87 79 66 68 64 87 80 69 69 72 66 59 69 94 90 93 90 46 34 23 16 13 14 20 22 31 34 64 65 76 47 27 27
2 3 3 3 4 54 13 99 98 85 70 51 51 69 84 67 54 51 64 71 81 75 73 75 82 90 74 99 84 59 50 34 17 12 9 26 22 20 27 54 77 56 53 41 28
2 2 2 3 3 4 8 22 88 72 64 62 41 34 40 57 55 48 47 54 66 63 57 70 62 80 76 87 90 70 48 34 19 14 11 42 17 21 23 44 61 38 35 29 33
2 2 2 3 3 3 3 4 23 57 68 62 47 33 26 29 39 36 36 38 53 70 78 77 75 77 76 76 95 90 88 36 17 12 17 30 19 30 29 34 57 42 35 34 33
2 2 2 3 2 3 3 2 10 16 59 44 51 60 24 22 26 50 46 37 41 59 67 71 68 83 85 98 98 89 86 73 30 19 14 23 18 33 41 37 46 56 42 42 50
3 3 3 3 2 3 2 2 2 3 8 65 32 23 38 24 16 18 31 35 34 43 67 75 78 89 93 96 92 95 100 92 53 28 17 12 16 31 58 57 49 60 54 54 60
4 3 4 4 3 3 2 2 2 3 3 5 28 32 12 13 9 7 16 29 40 48 52 68 74 86 97 89 92 88 82 88 61 43 30 19 14 57 60 65 64 51 39 40 62
7 5 8 5 7 2 2 2 4 8 6 7 6 15 13 11 12 11 7 8 17 27 35 33 42 67 79 100 95 100 95 100 85 53 43 29 13 42 56 64 68 70 53 61 50
11 8 9 17 6 5 5 8 11 10 16 13 7 6 15 23 31 17 18 21 17 21 22 26 28 30 73 91 95 95 93 89 87 56 38 35 24 34 43 46 63 38 36 38 52
9 10 16 14 14 35 38 30 22 36 32 15 11 8 8 20 30 39 56 92 50 54 42 34 35 37 34 77 89 98 96 89 81 60 48 43 38 17 24 40 39 47 67 61 70
8 10 13 18 36 58 68 60 47 44 43 38 18 12 9 6 10 94 100 96 92 93 70 28 27 22 26 58 84 83 100 99 82 68 62 54 52 31 26 32 30 86 97 68 78
6 15 32 46 80 97 87 74 74 69 61 56 52 36 22 11 8 19 100 98 95 100 94 100 43 12 16 34 81 92 72 77 70 77 78 77 58 57 41 34 27 45 84 59 46
19 40 61 58 65 86 72 86 93 100 71 72 61 61 41 33 20 8 16 70 91 97 85 57 99 74 28 56 68 52 48 74 77 64 73 79 74 71 60 33 22 32 89 74 72

GFSSW_500_rhum_060.txt.gz
RH
41 47 48 60 58 82 68 51 34 29 27 28 25 24 24 16 16 16 17 17 21 23 22 24 24 32 40 46 51 54 55 36 13 5 6 8 16 12 12 25 34 48 62 58 48
29 48 64 67 69 91 93 69 46 33 28 27 27 24 22 18 19 16 19 25 30 27 26 27 29 38 44 47 54 55 55 42 14 5 6 12 13 13 16 46 58 56 49 44 39
24 31 48 75 86 84 90 94 60 39 34 28 27 25 23 21 22 18 25 35 37 28 30 32 35 45 45 44 57 56 59 46 16 6 9 20 15 24 34 65 59 46 44 40 38
24 27 39 47 62 86 81 94 90 57 38 36 32 32 30 27 27 25 37 44 41 34 35 38 41 49 53 48 59 61 60 52 20 7 8 20 24 33 39 66 54 56 57 38 34
35 36 43 46 67 85 88 77 95 85 60 45 44 45 39 37 40 31 51 46 43 39 40 43 44 55 56 54 63 61 65 58 32 8 7 32 33 29 37 54 61 65 40 34 39
39 42 44 42 50 72 90 82 96 96 77 60 54 51 55 58 46 43 58 56 52 44 44 48 50 58 53 56 69 72 70 72 43 8 8 41 40 38 41 55 63 34 30 39 65
15 25 40 48 53 52 74 89 99 97 90 76 72 66 61 95 59 63 62 71 58 50 53 58 62 70 67 71 82 82 80 82 48 10 12 24 35 50 44 53 34 27 33 42 58
4 4 18 47 51 52 56 72 87 95 97 88 80 72 65 93 64 74 72 62 73 58 60 61 61 72 83 91 92 94 92 81 28 13 12 17 34 46 45 43 30 32 32 39 47
4 4 6 51 70 66 80 75 76 88 98 96 85 75 72 91 80 67 72 66 72 72 66 64 62 68 75 94 93 98 89 53 24 14 13 20 50 49 42 46 47 31 33 40 49
4 4 4 7 72 86 95 96 94 84 92 97 90 80 81 97 95 82 76 73 68 65 60 58 51 57 75 96 99 95 74 38 27 18 18 26 36 52 38 46 53 42 30 34 36
3 3 4 4 34 79 97 100 95 86 90 97 87 87 96 96 95 89 80 72 71 59 51 52 46 48 100 90 79 76 75 51 25 22 18 34 57 61 41 30 53 47 22 23 34
3 3 3 4 6 60 85 94 96 88 90 91 97 79 99 97 90 94 84 71 68 70 62 56 38 81 97 84 80 73 75 59 25 23 14 28 34 40 36 35 50 55 29 24 18
3 3 3 3 4 14 63 79 94 90 80 100 94 82 100 90 97 98 90 75 74 72 65 58 47 94 90 86 76 79 72 54 26 24 14 14 16 38 35 37 57 47 23 23 16
2 2 3 3 3 5 17 46 94 98 87 87 98 92 100 95 80 100 92 85 70 70 75 63 57 73 77 64 81 86 83 57 30 20 16 16 10 28 33 47 57 37 26 26 17
2 2 2 3 3 3 6 23 74 99 84 88 91 98 96 98 100 98 97 93 72 79 73 68 60 69 86 76 88 93 91 75 42 26 18 13 11 22 28 40 54 49 37 26 26
2 2 2 2 3 3 4 11 29 71 78 84 77 86 97 98 97 98 93 89 93 88 78 90 74 83 86 84 90 97 89 74 58 39 26 19 11 16 23 49 43 50 50 41 39
2 2 2 2 2 3 3 4 24 57 60 84 85 63 91 95 99 98 96 93 92 82 72 91 66 73 88 83 78 72 91 84 63 53 42 28 16 19 16 38 38 41 37 21 26
3 2 2 3 2 2 3 3 12 22 38 95 100 51 59 74 98 97 90 78 66 85 94 92 75 69 85 82 82 82 97 100 81 63 53 29 18 24 20 20 34 49 30 24 23
5 4 4 4 3 2 3 3 4 6 24 23 99 97 39 37 71 80 87 80 48 49 77 94 92 87 87 99 96 92 90 100 90 83 78 52 19 13 21 28 39 40 41 41 36
10 9 7 6 4 3 3 2 3 3 4 8 35 99 79 64 31 44 91 58 61 53 52 83 92 95 98 96 96 99 100 97 88 77 75 57 32 18 27 31 40 52 46 44 47
17 14 10 8 5 3 2 2 3 4 4 4 5 27 98 89 57 49 25 70 87 74 69 73 79 85 98 94 100 100 94 89 84 81 71 61 46 22 27 24 45 50 54 44 50
17 13 10 8 6 4 2 3 4 8 5 7 6 10 34 67 44 78 21 20 39 81 56 70 66 64 82 99 99 98 95 100 100 90 87 69 44 38 36 36 52 62 49 45 49
14 12 10 10 7 4 3 4 6 7 9 8 8 7 14 28 55 26 81 26 17 20 47 79 69 61 73 83 82 83 81 77 81 75 57 70 59 57 62 40 77 66 64 55 42
15 13 11 21 10 7 6 7 8 20 12 12 12 13 24 58 54 43 30 36 25 11 14 25 49 57 60 57 69 75 79 76 76 66 67 68 70 66 56 56 44 52 73 49 59
13 13 16 19 8 9 10 20 48 39 32 40 24 20 18 27 58 71 60 38 89 96 26 19 12 17 28 35 62 65 65 86 84 81 81 81 81 74 60 73 59 53 54 67 69
10 11 14 12 11 10 12 37 84 96 71 60 66 69 38 20 17 95 84 78 55 91 100 44 29 30 42 32 42 60 89 94 91 80 57 68 69 81 74 73 60 42 45 36 31
8 10 16 11 9 16 25 94 100 100 100 99 98 74 61 35 16 14 78 74 51 37 65 98 74 42 29 23 11 19 43 76 94 96 82 74 75 77 76 74 74 68 62 47 39

GFSSW_500_rhum_063.txt.gz
RH
5 7 8 9 11 19 29 41 46 47 54 63 44 31 29 26 20 19 17 17 15 16 17 20 25 23 25 26 34 44 50 56 52 42 10 8 9 14 13 15 30 41 42 37 32
5 6 7 9 13 15 19 27 46 60 64 69 63 38 31 28 26 23 22 20 19 20 22 29 27 25 29 31 41 44 50 58 51 46 14 7 8 9 18 30 52 60 40 33 39
6 6 7 7 9 11 15 19 26 40 73 72 69 54 35 33 32 27 24 23 22 21 29 35 28 29 34 37 48 45 56 61 56 49 28 6 8 16 38 43 56 52 43 45 32
9 11 13 14 14 14 15 17 23 32 61 71 74 71 42 40 41 32 28 28 25 27 39 39 31 34 38 41 50 48 61 62 63 61 40 7 8 21 42 34 34 52 47 43 31
13 19 20 24 26 27 31 32 32 35 48 72 62 92 58 43 66 40 34 35 32 38 47 43 35 38 44 46 52 53 72 63 68 73 61 8 8 29 48 45 44 50 48 30 34
25 27 27 29 29 30 30 31 38 42 46 66 60 88 87 67 97 57 46 40 40 52 55 45 39 42 47 52 59 57 64 68 72 76 67 11 12 41 40 43 46 47 29 33 42
18 20 22 17 11 14 19 24 35 43 42 59 64 72 95 97 96 84 72 50 60 72 68 55 44 44 49 60 69 73 70 68 83 76 54 10 17 37 43 44 42 33 32 32 45
9 7 6 5 5 5 7 13 23 45 49 45 60 68 79 100 94 99 90 73 78 85 78 57 47 47 54 68 80 88 80 77 77 60 32 9 26 42 44 39 43 33 33 33 42
5 5 4 4 4 4 4 4 19 34 50 51 47 78 74 98 97 93 100 95 91 98 83 68 53 50 54 69 82 92 93 73 62 52 28 12 30 29 50 42 44 42 34 30 29
6 5 5 4 4 3 3 3 14 34 78 68 57 87 94 96 97 98 98 97 96 100 93 83 60 47 43 67 84 96 82 63 64 53 33 16 18 23 50 52 40 45 41 24 23
7 6 5 4 4 3 3 3 4 38 82 88 73 93 100 94 97 97 97 96 96 85 85 76 56 41 66 86 90 78 70 64 77 68 40 18 18 24 37 59 50 40 43 34 23
10 7 6 5 4 3 3 3 3 17 59 86 98 97 100 95 96 96 98 94 94 98 96 70 48 58 89 85 76 68 60 71 85 76 43 22 19 30 45 66 52 40 35 47 23
12 8 6 5 3 3 2 2 2 6 28 85 88 97 99 83 94 98 96 96 97 97 91 75 75 65 94 92 74 64 70 90 91 73 51 25 17 24 35 65 49 47 50 28 21
14 8 6 5 4 3 3 2 2 3 10 42 96 95 98 96 87 98 96 97 95 99 100 86 85 57 76 76 67 48 82 97 83 74 60 36 16 18 20 41 42 57 30 22 20
13 8 5 4 3 3 2 2 2 2 4 29 83 97 90 96 99 97 96 96 96 100 95 82 89 60 71 68 86 71 100 86 76 65 57 44 22 25 15 32 49 56 45 22 20
7 5 4 3 2 2 2 2 2 2 3 15 63 99 100 96 96 93 97 97 99 97 95 96 94 80 91 88 92 81 93 73 69 67 60 50 30 32 18 31 39 48 47 39 24
3 3 3 2 2 2 2 2 2 2 5 14 55 98 92 100 100 99 97 96 97 94 91 94 86 92 93 85 68 70 78 69 62 66 66 61 44 25 31 24 31 41 44 46 40
3 2 2 2 2 2 2 2 2 2 3 5 25 84 91 93 100 100 98 99 96 96 99 98 95 82 89 91 88 83 84 83 78 78 91 78 48 22 28 23 35 34 50 40 27
4 3 3 3 3 3 2 2 2 2 3 3 11 29 91 100 100 100 99 97 96 97 98 99 92 93 98 98 99 94 76 87 89 82 81 69 57 42 21 29 29 38 47 46 29
5 5 5 6 5 4 3 2 2 2 3 3 6 37 100 98 94 100 99 99 84 89 97 96 96 97 99 94 90 88 100 96 86 68 69 69 62 65 30 25 27 41 48 52 39
8 8 6 4 4 4 4 2 3 4 3 4 6 8 55 100 97 100 100 99 98 88 49 74 81 97 97 91 97 100 88 83 78 67 67 71 63 78 57 22 35 46 60 53 50
10 8 7 7 8 9 9 6 6 6 4 4 8 8 19 74 100 100 100 92 99 99 98 89 97 94 97 98 96 96 98 100 98 92 88 79 63 68 85 35 25 48 51 72 67
9 10 10 12 12 14 14 12 9 7 7 5 7 14 12 50 92 100 99 100 94 86 98 96 86 98 96 95 97 92 95 88 84 82 70 71 62 65 94 92 40 34 59 78 84
6 9 12 12 12 14 14 12 9 8 8 10 11 17 23 53 76 98 100 87 99 66 39 96 97 98 98 99 95 94 99 97 90 82 77 67 75 73 85 99 90 45 58 68 73
5 5 13 14 12 14 53 26 10 10 19 26 15 23 25 43 61 69 86 100 92 80 92 42 40 65 95 98 94 91 92 97 87 78 76 80 82 79 82 97 99 92 54 49 52
5 4 8 13 13 17 84 79 15 17 28 62 39 35 38 26 34 63 36 64 92 68 100 80 65 36 30 71 98 100 78 64 66 89 96 100 92 91 91 97 96 96 90 77 38
5 4 7 13 19 94 87 82 27 82 100 100 100 68 47 40 22 45 52 41 70 100 86 99 100 84 51 24 25 41 50 60 82 100 100 100 100 99 99 96 86 97 98 99 73

GFSSW_500_rhum_069.txt.gz
RH
14 10 8 5 5 4 3 3 2 2 2 3 3 4 4 5 10 15 23 37 40 39 31 26 22 12 14 14 15 19 24 25 31 66 48 56 50 47 39 8 7 7 8 12 36
16 9 6 4 4 3 3 2 2 3 2 3 3 3 4 4 7 12 12 33 46 46 37 28 23 18 17 16 17 22 26 27 43 53 47 56 55 54 49 11 12 14 15 33 50
13 9 6 5 4 3 3 3 3 3 2 3 4 4 4 4 7 6 21 32 53 54 42 30 26 21 20 20 22 25 26 31 43 50 49 55 58 59 60 16 8 11 28 32 38
11 7 6 5 4 4 4 4 3 3 4 4 4 6 8 8 14 13 22 30 72 66 46 33 28 24 22 22 27 29 28 34 43 53 49 55 57 60 63 20 6 14 26 26 37
11 8 7 6 6 5 4 4 4 4 4 5 6 9 15 15 20 24 22 27 65 82 54 36 31 30 26 28 30 34 30 38 47 56 51 53 55 57 68 16 7 24 30 30 41
12 9 7 7 6 6 5 5 4 6 7 8 11 14 15 13 15 24 29 33 82 98 75 43 36 37 33 33 33 33 33 41 48 57 52 53 54 65 55 11 13 18 35 38 34
12 9 10 9 11 9 8 7 7 9 11 12 15 13 14 6 8 18 31 38 55 99 93 53 42 39 40 37 38 37 35 45 52 62 60 60 64 62 29 10 11 22 40 35 31
14 12 13 16 16 13 15 13 13 14 15 14 11 8 6 3 3 8 35 36 44 68 96 64 48 38 39 39 41 39 40 47 62 73 77 62 74 52 20 10 11 29 39 36 31
16 18 19 21 22 22 22 20 18 15 10 8 7 4 3 3 3 9 31 38 28 69 95 79 56 50 46 44 48 43 42 54 74 82 85 67 84 56 30 12 16 27 28 34 24
21 25 24 25 27 27 27 22 17 14 8 6 5 4 3 3 3 5 29 48 35 74 98 85 67 55 49 52 51 54 51 70 80 100 69 74 81 59 43 15 15 28 22 29 30
30 32 30 28 29 31 30 20 17 14 10 7 6 4 4 4 4 3 14 67 59 81 87 94 78 51 53 65 73 62 93 100 100 100 64 67 80 88 67 53 14 19 18 26 28
37 36 33 25 28 32 31 24 14 16 14 10 6 5 5 6 5 4 19 72 72 73 92 97 70 81 90 93 96 83 80 84 99 100 67 69 71 83 45 71 37 16 17 24 21
47 43 35 21 22 25 24 20 17 17 17 13 7 6 6 6 4 4 14 76 85 80 84 96 92 100 94 97 98 91 89 90 100 100 61 61 70 86 48 31 36 15 13 21 25
51 45 35 18 21 19 19 19 22 22 20 16 8 6 6 6 4 5 14 89 91 78 90 97 98 100 95 94 98 93 98 100 97 93 60 77 74 93 84 97 59 13 11 20 29
61 44 27 19 20 20 20 22 26 27 19 15 9 6 5 5 3 4 8 54 100 100 97 96 100 98 96 96 98 90 96 100 99 89 75 57 60 86 80 90 78 18 9 18 38
58 44 27 24 26 22 21 26 31 25 16 15 9 7 6 4 3 2 4 47 98 97 94 100 92 84 94 99 95 98 99 99 95 94 70 59 68 87 98 99 45 21 12 21 45
52 51 41 31 28 24 25 29 26 24 20 14 9 6 5 4 3 5 5 26 87 96 96 100 96 94 98 94 97 91 100 100 96 92 58 88 71 68 100 67 31 13 13 20 45
55 48 42 34 29 28 31 28 26 20 17 10 7 5 4 3 6 4 4 16 62 99 99 97 97 98 99 92 98 98 100 91 87 97 74 98 71 84 96 78 32 16 14 18 35
70 50 41 31 28 26 27 26 20 13 8 10 6 5 4 3 2 2 2 5 58 98 99 100 99 98 96 98 97 94 85 98 97 98 91 100 78 76 93 61 40 24 15 20 28
30 47 40 22 15 12 26 23 13 8 6 6 4 4 3 25 3 52 40 7 76 97 98 98 98 95 98 97 92 92 100 95 97 100 99 99 100 100 80 91 61 28 24 18 29
14 22 17 11 8 14 28 11 5 4 4 4 4 3 3 2 2 12 81 7 80 95 98 100 97 100 97 84 99 97 93 94 100 100 100 100 99 99 85 97 92 53 22 23 30
8 9 13 8 9 8 8 5 5 4 5 4 3 3 2 2 2 2 13 5 100 89 99 100 98 99 100 100 99 98 98 94 98 99 89 100 99 83 88 96 84 68 30 32 36
8 6 7 8 7 6 4 4 5 5 6 5 3 3 3 3 3 3 2 6 97 97 99 95 91 99 100 94 97 97 97 99 100 98 98 99 96 95 80 74 98 83 72 52 49
9 7 7 7 6 6 5 5 5 9 7 5 4 4 4 3 9 8 3 10 96 100 94 98 100 98 98 100 100 100 100 100 100 95 97 98 100 97 91 89 95 94 65 72 78
8 7 7 7 6 6 8 8 9 11 7 5 6 7 50 37 16 5 6 8 96 100 99 97 100 100 98 98 100 100 99 100 100 99 97 100 98 99 95 87 94 93 88 55 51
7 7 8 9 10 8 10 12 14 9 7 57 60 37 36 10 10 7 10 8 88 100 100 99 95 100 100 100 95 96 100 99 98 99 97 97 96 100 98 93 92 94 97 98 65
9 8 10 11 14 16 14 15 10 7 8 59 78 57 45 82 56 26 10 8 67 100 100 100 100 99 99 100 98 96 97 97 97 98 98 100 98 98 98 96 95 92 96 96 98

GFSSW_500_rhum_072.txt.gz
RH
31 25 22 20 17 14 11 8 6 4 3 3 2 2 2 2 2 2 2 2 3 4 6 12 21 37 33 27 19 12 14 17 17 23 53 81 79 45 57 53 48 43 12 5 8
36 27 28 26 19 11 10 5 4 3 3 2 2 2 2 2 2 2 2 3 3 3 3 7 18 33 35 30 22 16 17 18 19 26 86 82 80 54 51 50 49 54 25 5 20
51 34 31 25 19 13 8 5 4 3 3 3 2 2 2 2 2 2 2 3 3 7 6 8 25 39 37 34 24 17 20 18 22 28 85 46 56 61 57 60 61 63 30 7 14
65 48 35 29 23 14 9 5 5 4 4 3 3 3 3 3 6 2 3 4 6 6 9 14 29 50 48 36 24 20 20 20 24 27 34 42 55 52 62 61 60 68 20 11 16
51 50 48 35 19 12 8 7 5 5 4 4 4 4 4 3 11 5 4 5 9 12 17 14 36 80 55 32 23 21 22 23 26 26 34 46 50 53 56 63 63 59 8 11 20
46 46 41 36 26 14 10 7 6 5 4 4 4 4 4 8 6 8 9 9 11 16 24 23 34 92 59 37 28 25 26 26 28 28 37 48 52 55 58 69 53 24 7 11 31
50 44 36 22 17 13 10 8 6 6 7 6 5 4 4 10 7 9 9 6 5 10 16 28 37 98 79 47 35 29 28 26 31 32 41 52 54 59 70 60 38 11 8 12 31
46 31 23 15 15 13 14 10 9 10 10 8 7 6 7 9 10 11 6 4 4 11 16 21 39 50 79 61 43 35 32 30 33 36 46 60 54 74 73 54 33 15 8 10 26
40 23 18 18 17 17 18 14 11 12 15 14 10 12 11 10 10 10 7 3 3 6 12 35 29 42 99 75 47 37 31 34 37 40 57 71 65 87 74 52 47 19 8 7 15
30 25 21 19 20 23 24 21 16 20 20 20 17 13 12 10 9 7 4 4 5 5 7 41 47 64 97 85 52 45 39 40 40 61 94 92 76 97 84 64 55 21 10 6 13
35 31 28 27 25 25 27 28 19 19 23 22 20 15 14 13 11 6 5 5 6 6 7 33 45 40 98 72 62 54 50 52 92 86 95 86 71 82 89 80 70 33 19 10 10
37 36 32 36 30 27 30 30 25 20 15 19 20 18 17 15 12 7 6 6 6 6 7 37 37 52 77 99 86 61 59 78 94 99 97 100 71 75 88 88 83 66 25 13 8
31 31 31 40 43 38 40 34 27 30 21 25 24 23 20 18 14 7 7 7 6 5 10 52 61 90 99 97 94 66 87 96 83 100 99 85 72 71 80 84 76 97 40 24 8
40 46 50 53 42 48 41 34 29 28 24 23 24 24 23 19 15 10 8 7 5 4 14 71 82 80 93 89 97 82 91 97 84 99 92 100 74 94 88 86 65 57 34 17 11
38 50 60 70 61 59 45 33 26 26 22 23 22 26 24 18 12 10 6 7 4 5 27 93 100 89 90 98 98 76 99 95 99 97 88 80 74 70 94 99 92 91 64 9 12
12 46 59 72 74 67 51 36 25 25 24 26 27 30 26 16 11 10 7 6 4 4 11 79 98 91 91 91 95 99 97 98 99 98 85 66 73 60 83 99 99 100 69 13 14
6 23 63 74 76 65 48 36 30 29 34 40 33 30 24 12 8 9 7 5 4 3 9 65 96 91 98 96 99 97 98 98 97 89 60 63 77 61 90 94 75 72 66 17 16
6 8 44 63 85 63 48 43 38 32 22 23 26 30 23 9 8 6 6 5 4 3 4 42 93 100 96 94 99 97 98 92 100 94 76 69 68 58 94 98 94 60 36 13 16
8 8 13 49 66 66 49 48 56 28 16 17 25 33 18 7 8 15 11 7 6 5 3 60 97 98 98 100 98 99 82 86 99 94 97 67 85 84 84 77 72 73 54 26 12
12 8 9 21 40 47 49 55 46 18 21 26 23 29 16 18 67 31 46 63 41 24 5 80 95 92 99 99 94 94 100 98 96 97 99 88 89 97 77 72 76 71 50 22 13
18 11 10 12 20 24 61 53 26 14 13 21 32 16 7 5 9 22 12 58 58 39 15 68 99 100 98 96 100 99 96 88 100 97 100 98 98 88 97 99 88 80 68 47 18
22 14 10 15 21 22 41 39 17 12 18 23 18 8 5 4 5 7 5 21 27 31 17 66 89 98 100 100 98 98 98 100 99 98 95 96 84 93 96 98 100 76 80 64 40
47 18 12 69 26 20 18 14 14 11 11 8 6 5 4 4 4 4 4 55 23 5 6 81 98 98 100 99 100 88 94 99 97 99 95 96 80 96 97 98 94 82 98 98 73
97 29 14 64 51 23 14 11 9 8 6 5 4 4 3 3 3 4 95 58 25 4 3 79 96 98 100 100 98 99 99 99 98 97 95 86 99 92 97 98 98 98 96 86 94
98 38 64 23 14 14 12 14 8 6 5 6 5 5 5 4 9 7 59 100 66 5 4 49 84 97 96 100 99 100 99 99 96 97 98 99 98 98 88 91 90 94 87 92 98
58 39 36 36 20 15 11 8 8 8 9 8 9 8 6 7 28 83 70 80 56 4 19 98 86 100 99 100 99 98 99 98 98 99 96 98 95 98 96 98 72 59 81 87 86
42 44 30 27 21 16 42 16 11 13 14 19 65 82 40 44 8 32 77 60 37 33 24 100 98 100 100 96 98 100 100 100 99 98 100 92 89 100 96 91 82 89 92 98 97

GFSSW_500_rhum_075.txt.gz
RH
56 53 43 36 32 29 24 20 19 16 12 10 8 5 4 3 2 2 2 2 2 2 2 2 2 2 3 6 26 36 19 15 22 16 16 35 53 85 85 64 44 46 45 35 38
49 47 53 49 36 33 27 27 24 19 14 10 6 4 3 3 2 2 2 2 2 2 2 2 2 2 2 8 24 22 13 16 21 15 15 24 64 84 77 48 41 47 37 22 28
51 48 46 48 54 43 35 32 25 20 11 8 5 4 3 3 2 2 2 2 2 2 2 2 2 3 3 5 26 33 12 25 22 15 16 24 42 71 82 66 42 52 51 35 46
51 48 42 44 46 60 52 46 45 34 15 14 6 5 3 3 3 3 3 3 3 2 2 2 3 2 3 6 30 28 36 36 23 16 18 21 27 30 52 51 52 61 66 38 52
73 58 51 41 41 53 55 47 38 26 16 12 9 8 8 4 4 3 3 4 3 3 2 3 4 6 5 11 24 38 48 38 21 17 21 25 25 26 40 48 59 66 65 61 19
84 73 61 53 47 42 46 44 40 29 19 13 12 7 4 5 5 4 4 4 5 3 4 5 8 10 11 13 14 49 59 46 22 18 21 26 26 29 34 52 62 65 67 38 8
92 94 81 71 63 57 47 37 30 20 17 12 11 7 5 7 5 6 5 5 6 6 4 6 5 8 11 14 22 33 80 58 27 21 22 25 27 30 41 57 63 65 64 18 8
92 88 90 81 75 63 50 36 25 17 16 13 10 7 7 8 8 6 6 8 7 8 8 6 6 6 9 17 19 36 60 72 36 25 24 28 27 34 55 68 66 68 36 22 9
90 88 90 92 81 59 38 23 19 17 16 14 11 8 8 10 9 8 9 8 8 9 9 6 4 4 6 16 33 37 32 77 54 32 35 36 33 42 73 75 73 58 47 33 10
93 93 90 86 77 54 32 24 20 18 16 18 13 12 10 10 9 10 11 9 9 8 6 5 5 6 6 9 28 39 73 72 81 39 35 58 52 55 89 90 73 72 63 37 10
59 70 83 63 52 41 35 32 25 23 17 20 16 14 14 14 8 14 12 8 12 9 7 6 6 6 6 11 51 62 97 94 82 52 79 93 95 78 89 100 74 66 60 40 18
16 22 21 35 52 42 34 30 26 21 20 23 20 14 20 18 13 12 13 12 12 12 9 8 7 7 7 12 47 55 82 76 60 52 96 84 94 100 89 83 84 66 61 44 19
3 6 8 17 25 31 42 32 26 27 19 24 20 17 16 20 17 18 17 14 15 15 11 9 7 6 8 22 55 54 93 83 64 74 97 100 98 93 66 81 90 80 71 54 25
2 2 2 2 10 35 38 36 49 37 35 24 24 21 20 20 19 19 19 18 16 14 11 9 6 7 9 43 77 59 86 91 96 94 93 89 79 84 92 92 93 87 69 52 44
2 2 2 2 2 27 26 43 58 50 39 34 32 29 24 21 20 21 20 18 15 10 8 8 6 9 12 66 93 73 100 95 86 72 84 70 66 56 67 59 74 91 84 74 31
2 2 2 3 2 12 34 69 72 61 45 36 29 25 23 23 25 23 26 20 14 11 8 5 4 6 30 72 90 89 98 95 71 78 79 74 64 47 52 70 83 72 100 91 22
4 5 5 6 6 8 40 77 65 51 42 46 37 31 31 30 31 28 26 22 14 10 7 5 4 6 24 65 94 100 90 99 94 95 67 69 76 42 72 75 68 84 95 72 47
14 6 10 9 9 10 39 71 72 49 56 62 80 37 31 30 27 28 28 19 9 8 8 7 5 19 29 74 99 94 94 94 95 99 88 84 62 49 79 76 89 95 94 75 65
16 24 10 14 11 10 37 59 56 64 49 33 62 34 31 29 28 22 19 21 14 10 8 9 8 21 67 89 98 87 90 94 99 95 83 77 72 98 93 91 55 76 83 82 66
12 11 27 19 15 10 21 40 59 63 36 28 39 46 32 35 63 64 36 30 32 24 16 20 10 64 76 99 98 99 100 97 98 97 86 76 86 81 81 85 72 89 86 77 54
16 8 15 34 21 14 9 18 57 40 27 23 26 23 23 28 18 57 35 32 28 28 48 16 6 49 80 100 100 100 98 96 99 94 91 98 89 78 94 99 98 96 90 62 71
9 7 29 35 24 16 9 12 36 31 27 27 21 15 14 13 12 9 12 18 44 19 26 21 6 40 88 100 100 100 98 97 99 97 96 100 95 88 100 97 100 91 86 64 66
47 44 36 72 83 24 11 12 23 24 21 16 15 14 12 9 15 7 6 8 5 21 9 15 14 21 92 98 100 99 100 96 100 98 95 98 100 99 97 97 98 74 83 69 60
56 90 91 61 100 94 29 13 21 18 19 16 11 10 10 10 8 8 9 62 43 26 9 11 6 18 84 100 100 100 100 98 100 96 98 95 98 99 97 100 88 90 97 95 77
83 100 100 61 100 100 100 86 29 16 14 13 10 9 9 7 6 5 4 10 60 42 10 6 3 9 88 98 100 100 100 100 95 99 96 98 98 98 98 94 93 84 85 96 100
95 100 100 64 79 100 100 100 100 99 71 13 13 9 7 6 6 5 4 5 5 19 7 8 4 6 75 91 99 100 98 98 97 99 98 97 94 88 97 94 97 100 93 100 86
100 100 87 100 100 96 93 90 100 100 100 72 28 34 10 11 7 6 19 9 19 39 50 15 3 5 76 99 98 98 99 99 98 99 99 97 96 100 96 99 97 100 100 100 100

GFSSW_500_rhum_078.txt.gz
RH
73 71 59 60 62 58 52 46 48 35 27 24 21 18 15 11 9 6 4 4 3 2 2 2 2 2 2 2 2 2 2 3 5 18 21 29 20 21 23 42 45 34 24 36 43
64 70 66 56 52 53 56 51 51 38 31 27 25 23 19 12 12 7 4 4 2 2 2 2 2 2 2 2 2 3 4 4 14 21 22 18 17 18 22 31 31 24 24 36 45
60 58 60 58 56 52 48 43 46 48 45 32 31 25 21 13 9 6 4 3 2 2 2 2 2 2 2 2 2 3 4 6 10 24 27 19 19 20 19 24 32 32 28 37 43
75 67 70 68 64 62 50 43 41 43 53 46 44 41 30 17 9 7 4 4 3 3 3 3 3 2 2 2 3 2 2 3 8 27 31 23 22 19 18 35 36 34 36 44 47
83 77 77 87 84 78 67 54 45 43 45 58 49 41 43 18 25 29 13 11 19 18 8 4 4 3 2 2 2 2 5 5 4 10 34 31 19 20 22 33 34 50 46 52 55
81 83 82 83 91 95 89 67 57 45 42 52 53 44 28 11 14 12 8 6 4 3 5 5 4 3 2 2 2 4 4 4 6 7 22 46 21 18 18 26 43 51 61 56 60
90 86 85 88 91 87 80 88 74 62 53 44 43 42 27 13 12 15 11 6 4 8 7 4 4 4 3 3 3 4 4 5 6 12 16 61 38 18 19 24 31 49 62 64 60
94 94 93 91 90 82 84 88 82 74 65 55 46 40 24 23 19 12 9 6 6 6 6 6 4 4 4 4 4 5 5 5 10 22 40 68 48 24 19 25 34 50 70 65 66
92 89 88 89 94 90 87 90 87 82 71 58 47 39 24 20 20 14 11 8 6 6 7 7 5 5 6 7 6 5 5 8 14 32 68 77 56 30 35 34 42 57 71 78 75
63 53 46 50 60 77 84 89 91 78 75 65 46 30 25 20 18 16 13 10 8 8 7 8 7 5 7 7 6 6 6 7 13 29 100 97 60 45 41 50 57 61 76 88 63
6 8 10 11 15 26 37 58 69 66 63 46 40 24 22 20 17 17 16 12 12 11 9 8 8 8 7 7 6 6 6 6 12 38 89 80 46 46 44 51 52 74 84 73 67
3 2 3 3 3 4 9 20 28 51 55 43 30 25 25 20 16 20 16 13 12 12 11 9 8 10 10 9 9 8 7 6 13 54 86 84 63 50 47 56 63 73 76 78 73
2 2 2 2 2 2 2 3 10 22 30 49 46 34 27 23 19 17 17 15 13 12 13 10 11 12 12 12 11 9 7 7 29 79 84 70 56 53 55 56 60 82 91 83 72
2 2 2 2 2 2 2 2 2 6 29 31 39 45 38 26 22 21 20 17 16 15 15 12 14 12 12 11 9 8 19 36 48 96 79 82 38 60 74 54 62 86 89 78 76
2 2 2 2 3 3 2 2 3 7 19 30 33 34 40 35 26 23 21 21 19 17 16 13 12 11 10 9 8 7 33 42 70 87 69 84 44 56 84 60 52 55 84 73 69
4 3 3 3 3 4 4 3 3 20 9 23 29 40 40 37 34 28 24 20 17 17 19 17 15 13 12 10 6 7 39 64 78 63 56 56 56 42 67 53 53 53 60 64 56
5 12 20 16 10 8 7 6 11 14 20 33 42 52 42 34 29 24 22 24 23 21 22 20 12 11 8 6 6 7 56 75 65 85 40 72 93 36 69 69 65 61 70 69 37
12 25 29 21 22 13 12 9 12 7 40 94 68 60 43 41 35 31 30 30 29 24 24 19 12 10 8 8 8 16 77 83 89 81 53 68 74 47 83 91 79 53 63 66 61
24 27 27 27 19 22 17 12 6 16 54 83 94 68 66 64 64 38 31 30 30 29 20 13 9 10 9 8 12 33 73 90 88 92 70 66 81 75 94 93 81 53 62 65 73
53 50 46 33 21 12 23 9 8 24 58 56 100 100 100 100 81 49 34 32 32 32 24 18 15 19 12 12 52 96 100 98 97 98 76 78 70 72 94 93 73 53 61 66 82
63 48 17 30 18 12 12 16 11 21 45 72 91 100 100 100 100 71 62 40 50 40 33 26 18 32 18 16 59 98 98 98 100 100 94 100 81 95 97 98 85 94 74 73 71
71 47 9 14 15 10 9 25 14 11 41 45 89 100 82 94 100 99 61 89 55 49 30 25 16 15 21 21 68 100 97 98 100 100 83 100 90 89 92 94 77 97 94 68 65
41 14 18 18 24 14 18 23 15 11 36 81 85 100 90 91 100 100 83 24 18 14 11 24 13 11 18 52 100 100 100 100 100 100 79 97 91 98 98 100 84 92 80 88 73
38 49 69 61 42 46 80 28 16 17 29 50 98 98 89 93 92 71 27 29 24 19 8 9 10 10 13 55 97 96 100 100 100 99 81 79 90 97 96 100 92 97 97 70 73
84 66 91 100 98 100 100 86 42 21 26 45 61 75 85 48 68 23 15 19 34 24 13 11 8 7 6 12 94 93 90 99 94 97 80 85 96 99 97 98 99 94 95 66 73
92 82 100 100 100 100 100 100 100 54 49 63 81 82 41 33 19 12 10 16 26 12 8 12 23 12 8 6 83 94 93 98 79 73 72 78 94 98 98 97 99 96 91 60 68
99 89 92 100 97 100 100 100 100 100 100 88 81 86 65 28 12 12 11 9 7 5 4 5 8 6 8 8 47 89 95 99 92 69 76 71 98 99 98 96 97 99 97 94 95

GFSSW_500_rhum_081.txt.gz
RH
57 54 53 50 54 67 66 66 62 56 54 52 45 43 46 27 23 19 16 12 9 6 5 4 3 2 2 2 2 2 2 2 2 4 11 24 17 18 15 14 14 15 17 30 23
60 58 59 56 52 52 57 58 62 62 64 59 54 44 37 28 25 23 19 14 11 8 5 4 3 2 2 2 2 2 2 2 3 3 5 24 16 20 14 16 18 19 20 19 21
71 69 69 76 76 64 62 58 56 53 55 62 53 53 54 40 31 28 23 16 12 9 6 4 3 2 2 2 2 2 2 2 3 3 4 15 19 21 16 16 20 21 26 29 21
76 74 78 86 80 85 78 66 59 57 51 55 51 50 48 56 36 27 20 14 11 9 6 4 3 3 3 3 3 3 3 2 2 2 2 4 24 22 19 17 24 22 23 20 22
83 94 98 95 89 91 87 77 71 67 68 62 57 48 46 48 41 41 35 39 48 36 25 5 9 16 9 10 7 14 6 5 3 2 3 4 5 27 25 28 29 26 21 18 21
99 99 99 98 99 96 93 96 93 83 71 76 73 62 47 42 43 49 34 21 17 12 15 10 10 22 21 15 8 10 11 5 2 2 3 4 3 6 17 36 29 29 23 18 22
91 93 100 95 97 95 96 97 98 93 87 80 81 76 61 41 40 40 40 27 15 10 8 7 5 4 5 12 17 6 3 3 2 3 4 5 3 4 10 42 33 36 27 20 26
91 94 100 98 96 94 96 98 96 93 92 88 77 72 70 62 50 42 36 20 16 11 9 7 6 5 5 7 5 4 4 3 3 3 4 6 3 6 21 48 45 28 39 37 40
79 85 85 89 92 90 88 89 96 92 90 93 88 75 70 70 61 51 34 22 19 17 11 8 6 6 6 5 6 5 4 3 3 4 5 5 3 8 14 54 44 23 27 55 50
24 25 24 19 11 18 38 54 50 61 72 75 78 86 82 67 55 43 33 24 18 17 12 10 8 6 6 7 6 6 5 3 3 4 5 5 5 14 18 67 44 27 31 39 39
4 4 3 3 3 3 3 3 10 28 48 54 62 70 71 83 78 56 34 22 20 17 14 11 9 8 9 8 7 6 5 4 4 5 4 5 6 15 17 73 39 35 40 31 49
4 4 4 3 3 3 3 2 2 3 14 26 36 48 62 55 53 32 35 36 23 17 15 12 10 11 9 8 8 8 6 4 4 6 6 6 6 14 18 55 44 45 46 46 61
4 4 4 3 2 2 2 2 2 2 2 6 18 30 52 55 44 33 28 26 20 19 18 14 12 13 12 10 8 8 5 5 5 6 6 8 7 16 25 44 49 48 44 49 83
4 4 3 2 2 2 2 2 2 2 2 4 4 14 32 49 45 34 33 23 20 18 18 15 15 12 13 12 12 8 10 7 6 6 5 16 11 15 21 40 52 66 59 85 80
3 3 2 2 3 3 2 2 2 2 2 4 4 6 17 40 42 45 33 26 22 20 19 17 16 15 14 14 12 10 9 9 8 6 7 27 31 13 31 39 48 59 73 82 55
4 4 4 4 4 4 8 7 5 4 2 6 11 16 18 36 39 39 37 29 24 21 20 20 19 17 15 14 13 13 11 11 9 7 7 40 44 21 47 44 64 77 98 82 66
6 7 7 7 11 10 27 21 13 6 3 7 17 29 29 48 43 40 40 34 33 34 25 22 19 19 18 16 14 13 11 9 8 7 11 33 44 22 52 60 93 98 93 96 89
10 10 8 18 23 21 23 28 18 8 6 32 32 48 56 58 52 46 39 34 31 29 25 22 23 21 19 18 14 12 11 10 9 8 29 54 39 28 58 76 96 95 97 100 78
12 9 19 47 47 54 33 20 19 15 11 15 100 68 68 94 91 66 45 35 29 26 27 26 26 21 18 15 14 12 11 11 10 21 46 54 54 80 52 85 92 94 88 80 94
10 7 47 61 60 55 34 21 18 17 12 16 68 100 100 93 100 79 64 37 31 30 30 26 23 19 14 12 12 13 12 12 30 69 86 78 81 70 61 77 80 63 78 82 96
6 13 82 71 66 53 34 21 19 17 16 14 49 99 100 100 100 79 90 56 41 33 30 30 29 31 22 20 16 15 14 15 67 95 100 99 73 84 75 63 72 69 64 94 99
6 66 87 72 42 21 14 25 16 18 18 14 52 97 100 100 100 100 68 55 50 53 45 36 35 32 33 31 25 17 24 90 100 96 100 92 74 87 84 64 58 62 75 95 90
32 100 70 25 18 15 14 22 14 22 20 14 42 89 100 100 100 100 76 82 100 99 96 72 42 30 25 36 23 15 53 100 100 100 91 91 66 99 79 81 73 94 96 88 88
94 67 31 29 50 61 57 37 13 22 24 13 30 67 100 100 100 99 100 58 60 74 100 51 24 28 25 21 16 22 76 100 100 95 80 76 76 96 100 86 98 91 99 92 75
80 31 37 47 84 94 68 64 48 31 24 15 15 56 97 100 100 100 98 92 96 100 35 25 27 17 17 13 14 36 94 100 94 94 65 73 64 93 99 100 97 97 87 74 71
22 38 49 92 100 100 100 100 100 84 24 16 16 52 97 100 100 100 88 79 96 49 28 30 37 21 12 10 8 9 74 100 98 93 67 64 66 86 99 99 99 95 82 74 79
28 47 69 100 100 100 100 100 100 99 35 23 36 46 99 86 83 95 87 89 77 52 17 25 18 15 19 24 10 5 22 91 98 83 91 63 72 72 98 98 97 98 100 91 94

GFSSW_500_rhum_084.txt.gz
RH
42 51 69 68 61 59 55 48 41 42 48 63 68 65 57 54 47 42 43 36 26 19 15 12 8 6 5 4 3 3 2 2 2 4 7 21 12 15 6 8 8 9 10 12 10
38 45 53 65 69 67 60 53 53 47 47 50 63 62 64 64 56 46 41 37 33 23 19 14 11 9 6 4 4 3 2 2 3 4 4 8 6 14 6 8 9 10 9 8 9
44 50 56 61 66 75 75 70 65 60 63 50 50 54 55 55 60 62 54 44 30 27 22 14 11 12 9 4 4 3 2 3 3 4 3 3 4 10 5 5 9 9 10 8 9
56 54 54 54 58 68 75 75 81 79 75 77 65 63 65 52 55 51 48 49 34 24 21 13 10 8 5 4 4 3 3 3 3 3 2 2 2 2 3 5 10 7 8 8 11
58 58 58 60 57 64 72 84 95 91 87 85 80 79 73 69 75 53 49 50 46 28 18 13 23 21 34 28 4 5 4 6 7 8 10 7 4 2 3 3 10 11 8 10 15
57 60 73 76 74 74 80 86 87 82 84 95 95 96 84 78 77 67 57 46 43 38 28 28 21 30 32 10 10 11 14 19 15 8 7 7 5 6 4 7 6 9 8 14 19
67 69 77 81 82 82 83 87 93 83 84 85 86 95 93 97 87 77 68 50 41 37 32 23 13 14 12 11 10 12 13 8 8 9 11 7 8 3 5 7 5 6 9 23 26
65 65 67 63 60 58 57 74 90 89 94 95 92 97 86 99 92 98 83 51 45 37 25 21 15 21 23 11 10 8 6 7 13 9 5 4 6 5 5 5 4 4 9 16 28
57 54 46 38 32 27 20 15 23 34 54 74 90 95 93 99 98 95 99 86 79 39 23 20 23 18 18 13 8 6 6 6 6 5 5 5 7 4 4 3 3 4 9 25 40
37 28 18 12 14 10 7 5 4 4 6 18 51 72 88 98 99 98 97 96 69 55 32 20 21 20 17 11 11 8 7 6 5 6 6 5 5 3 3 2 2 5 14 15 46
8 7 7 6 6 6 5 5 4 4 4 3 6 27 44 81 95 97 98 100 97 87 25 20 22 28 13 11 10 8 7 6 6 6 6 5 4 4 3 2 2 5 16 31 47
9 9 8 7 6 6 6 5 4 4 3 3 3 4 8 28 58 83 92 99 97 49 27 34 29 18 15 13 11 9 8 7 7 7 6 5 6 4 2 3 4 6 18 46 38
10 10 8 6 6 5 5 4 4 3 3 3 2 2 2 5 29 61 78 73 74 84 94 71 31 18 16 13 11 10 9 8 7 8 6 5 4 3 4 4 4 9 20 49 35
10 9 7 6 5 4 3 2 2 2 2 2 2 2 2 2 8 43 67 72 74 53 25 58 61 26 19 16 14 11 11 10 8 6 6 7 6 4 4 4 7 15 33 48 42
10 8 6 4 3 2 3 3 3 2 2 2 3 3 5 3 4 15 52 55 56 35 27 28 23 21 19 17 14 13 12 11 9 9 9 8 7 5 3 11 15 23 34 48 47
10 6 4 4 3 4 5 4 5 8 4 7 10 5 8 7 6 6 40 51 45 29 24 23 27 20 20 18 16 14 13 13 10 9 7 7 7 3 7 34 27 34 55 54 73
7 4 4 5 5 6 5 7 24 20 17 14 11 13 19 56 35 13 37 47 47 41 29 22 22 21 20 20 19 17 14 13 11 10 7 7 5 4 26 52 57 61 70 100 98
5 4 6 7 8 6 5 23 34 37 31 18 17 16 46 89 63 47 50 47 38 32 28 24 22 22 23 22 19 17 14 14 13 10 6 6 5 7 40 72 55 49 49 51 82
5 6 8 11 8 6 6 26 50 57 44 21 17 24 46 100 100 62 58 57 44 36 32 28 28 28 26 22 20 19 17 14 12 11 7 6 9 26 52 67 50 48 64 67 78
6 7 13 13 9 7 19 49 64 65 44 32 18 19 91 98 100 93 63 66 64 56 39 35 34 29 26 25 23 20 16 15 15 12 10 8 12 66 50 56 61 53 73 78 81
7 12 17 13 10 20 62 70 66 62 31 29 17 11 87 93 100 100 96 80 52 53 41 37 35 35 28 23 20 17 15 14 15 17 15 11 31 80 64 62 54 50 76 77 92
11 21 16 13 13 71 70 42 22 24 26 26 15 10 48 100 100 100 100 97 83 65 55 46 36 31 35 28 27 22 19 20 20 23 25 49 62 99 88 97 75 61 90 94 100
19 14 13 30 82 57 22 17 14 16 29 22 16 11 38 98 82 96 100 98 81 75 72 64 45 36 39 42 38 38 33 31 24 18 38 70 61 87 90 94 83 79 97 95 100
8 21 80 86 41 24 32 40 42 38 28 18 19 11 34 100 96 99 100 100 100 83 95 99 90 75 61 45 37 37 35 29 20 16 40 46 59 92 88 100 97 77 83 94 100
49 85 80 30 28 53 90 76 63 63 26 22 22 12 24 100 99 100 100 100 100 100 100 100 100 100 47 33 32 28 27 22 14 41 51 62 60 86 88 98 98 83 100 100 100
75 67 22 28 66 89 98 100 100 87 43 21 25 13 15 100 98 100 100 100 100 90 91 80 95 49 25 28 23 22 15 17 19 68 75 73 71 90 76 97 98 89 96 99 98
69 22 18 44 77 80 94 100 100 99 66 22 22 16 13 58 98 100 100 100 100 98 100 89 86 45 40 41 33 20 16 9 10 24 76 82 100 80 77 94 99 100 97 100 98